Wetterdaten: Donnerstag, 08.10.2020
Datum Zeit Temp. Aussen Temp. o. S. Temp +5cm Feuchte Auss Luftdruck Regen Sonnenschein Regendauer Solar Windben Empfang
08.10.2020 00:00 10,0 C 8,9 C 8,9 C 91 % 1017,9 hPa 0,0 l/m 0 min 0 min 0 W/m 6,4 km/h (2 Bft) 100,00 %
08.10.2020 00:02 10,0 C 8,9 C 8,9 C 92 % 1017,9 hPa 0,0 l/m 0 min 0 min 0 W/m 9,7 km/h (2 Bft) 97,50 %
08.10.2020 00:04 10,0 C 8,9 C 8,9 C 92 % 1018,0 hPa 0,0 l/m 0 min 0 min 0 W/m 6,4 km/h (2 Bft) 100,00 %
08.10.2020 00:07 10,0 C 8,9 C 8,9 C 92 % 1018,0 hPa 0,0 l/m 0 min 0 min 0 W/m 16,1 km/h (3 Bft) 100,00 %
08.10.2020 00:08 9,9 C 8,9 C 8,9 C 92 % 1018,0 hPa 0,0 l/m 0 min 0 min 0 W/m 0,0 km/h (0 Bft) 100,00 %
08.10.2020 00:10 9,9 C 8,9 C 8,9 C 92 % 1018,0 hPa 0,0 l/m 0 min 0 min 0 W/m 19,3 km/h (3 Bft) 100,00 %
08.10.2020 00:12 9,9 C 8,9 C 8,9 C 92 % 1017,9 hPa 0,0 l/m 0 min 0 min 0 W/m 3,2 km/h (1 Bft) 97,87 %
08.10.2020 00:14 9,9 C 8,9 C 8,9 C 92 % 1017,9 hPa 0,0 l/m 0 min 0 min 0 W/m 6,4 km/h (2 Bft) 100,00 %
08.10.2020 00:16 9,9 C 8,9 C 8,9 C 92 % 1017,9 hPa 0,0 l/m 0 min 0 min 0 W/m 0,0 km/h (0 Bft) 100,00 %
08.10.2020 00:18 9,9 C 8,9 C 8,9 C 92 % 1017,9 hPa 0,0 l/m 0 min 0 min 0 W/m 6,4 km/h (2 Bft) 100,00 %
08.10.2020 00:20 9,9 C 8,9 C 8,9 C 92 % 1018,0 hPa 0,0 l/m 0 min 0 min 0 W/m 16,1 km/h (3 Bft) 100,00 %
08.10.2020 00:22 9,9 C 8,9 C 8,9 C 92 % 1018,0 hPa 0,0 l/m 0 min 0 min 0 W/m 6,4 km/h (2 Bft) 97,87 %
08.10.2020 00:24 9,9 C 8,9 C 8,9 C 92 % 1017,9 hPa 0,0 l/m 0 min 0 min 0 W/m 3,2 km/h (1 Bft) 95,74 %
08.10.2020 00:26 9,9 C 8,9 C 8,9 C 92 % 1017,9 hPa 0,0 l/m 0 min 0 min 0 W/m 0,0 km/h (0 Bft) 97,87 %
08.10.2020 00:28 9,9 C 8,9 C 8,9 C 92 % 1017,9 hPa 0,0 l/m 0 min 0 min 0 W/m 16,1 km/h (3 Bft) 97,56 %
08.10.2020 00:30 9,8 C 8,9 C 8,9 C 92 % 1018,0 hPa 0,0 l/m 0 min 0 min 0 W/m 12,9 km/h (3 Bft) 93,75 %
08.10.2020 00:32 9,8 C 8,9 C 8,9 C 92 % 1017,9 hPa 0,0 l/m 0 min 0 min 0 W/m 16,1 km/h (3 Bft) 95,83 %
08.10.2020 00:34 9,8 C 8,9 C 8,9 C 92 % 1017,9 hPa 0,0 l/m 0 min 0 min 0 W/m 6,4 km/h (2 Bft) 93,62 %
08.10.2020 00:36 9,8 C 8,9 C 8,9 C 92 % 1018,0 hPa 0,0 l/m 0 min 0 min 0 W/m 3,2 km/h (1 Bft) 95,65 %
08.10.2020 00:38 9,8 C 8,9 C 8,9 C 92 % 1018,0 hPa 0,0 l/m 0 min 0 min 0 W/m 12,9 km/h (3 Bft) 95,74 %
08.10.2020 00:40 9,8 C 8,9 C 8,9 C 92 % 1017,9 hPa 0,0 l/m 0 min 0 min 0 W/m 12,9 km/h (3 Bft) 95,74 %
08.10.2020 00:42 9,8 C 8,9 C 8,9 C 92 % 1017,9 hPa 0,0 l/m 0 min 0 min 0 W/m 6,4 km/h (2 Bft) 93,62 %
08.10.2020 00:44 9,8 C 8,9 C 8,9 C 92 % 1017,9 hPa 0,0 l/m 0 min 0 min 0 W/m 0,0 km/h (0 Bft) 95,74 %
08.10.2020 00:46 9,8 C 8,9 C 8,9 C 92 % 1018,0 hPa 0,0 l/m 0 min 0 min 0 W/m 12,9 km/h (3 Bft) 93,48 %
08.10.2020 00:48 9,8 C 9,4 C 8,9 C 92 % 1018,0 hPa 0,0 l/m 0 min 0 min 0 W/m 22,5 km/h (4 Bft) 93,62 %
08.10.2020 00:50 9,8 C 9,4 C 8,9 C 92 % 1018,0 hPa 0,0 l/m 0 min 0 min 0 W/m 6,4 km/h (2 Bft) 95,74 %
08.10.2020 00:52 9,8 C 9,4 C 8,9 C 92 % 1017,9 hPa 0,0 l/m 0 min 0 min 0 W/m 12,9 km/h (3 Bft) 95,74 %
08.10.2020 00:54 9,8 C 9,4 C 8,9 C 92 % 1017,9 hPa 0,0 l/m 0 min 0 min 0 W/m 6,4 km/h (2 Bft) 95,74 %
08.10.2020 00:56 9,8 C 9,4 C 8,9 C 92 % 1017,9 hPa 0,0 l/m 0 min 0 min 0 W/m 6,4 km/h (2 Bft) 95,74 %
08.10.2020 00:58 9,8 C 9,4 C 8,9 C 92 % 1017,8 hPa 0,0 l/m 0 min 0 min 0 W/m 6,4 km/h (2 Bft) 93,48 %
08.10.2020 01:00 9,8 C 9,4 C 8,9 C 92 % 1017,8 hPa 0,0 l/m 0 min 0 min 0 W/m 16,1 km/h (3 Bft) 93,75 %
08.10.2020 01:02 9,8 C 9,4 C 8,9 C 92 % 1017,8 hPa 0,0 l/m 0 min 0 min 0 W/m 9,7 km/h (2 Bft) 95,74 %
08.10.2020 01:04 9,8 C 9,4 C 8,9 C 92 % 1017,8 hPa 0,0 l/m 0 min 0 min 0 W/m 6,4 km/h (2 Bft) 94,00 %
08.10.2020 01:06 9,8 C 9,4 C 8,9 C 92 % 1017,9 hPa 0,0 l/m 0 min 0 min 0 W/m 19,3 km/h (3 Bft) 95,74 %
08.10.2020 01:08 9,8 C 9,4 C 8,9 C 92 % 1017,9 hPa 0,0 l/m 0 min 0 min 0 W/m 19,3 km/h (3 Bft) 95,74 %
08.10.2020 01:10 9,8 C 9,4 C 8,9 C 92 % 1018,0 hPa 0,0 l/m 0 min 0 min 0 W/m 22,5 km/h (4 Bft) 97,87 %
08.10.2020 01:12 9,8 C 9,4 C 8,9 C 92 % 1017,9 hPa 0,0 l/m 0 min 0 min 0 W/m 12,9 km/h (3 Bft) 97,87 %
08.10.2020 01:14 9,8 C 9,4 C 8,9 C 92 % 1018,0 hPa 0,0 l/m 0 min 0 min 0 W/m 16,1 km/h (3 Bft) 100,00 %
08.10.2020 01:16 9,9 C 9,4 C 8,9 C 92 % 1018,0 hPa 0,0 l/m 0 min 0 min 0 W/m 9,7 km/h (2 Bft) 100,00 %
08.10.2020 01:18 9,9 C 9,4 C 8,9 C 92 % 1017,9 hPa 0,0 l/m 0 min 0 min 0 W/m 12,9 km/h (3 Bft) 100,00 %
08.10.2020 01:20 9,9 C 9,4 C 8,9 C 92 % 1017,9 hPa 0,0 l/m 0 min 0 min 0 W/m 12,9 km/h (3 Bft) 100,00 %
08.10.2020 01:22 9,9 C 9,4 C 8,9 C 92 % 1017,9 hPa 0,0 l/m 0 min 0 min 0 W/m 12,9 km/h (3 Bft) 100,00 %
08.10.2020 01:24 9,9 C 9,4 C 8,9 C 92 % 1017,9 hPa 0,0 l/m 0 min 0 min 0 W/m 9,7 km/h (2 Bft) 100,00 %
08.10.2020 01:26 9,9 C 9,4 C 8,9 C 92 % 1017,9 hPa 0,0 l/m 0 min 0 min 0 W/m 6,4 km/h (2 Bft) 100,00 %
08.10.2020 01:28 9,9 C 9,4 C 8,9 C 92 % 1017,9 hPa 0,0 l/m 0 min 0 min 0 W/m 0,0 km/h (0 Bft) 100,00 %
08.10.2020 01:30 9,9 C 9,4 C 8,9 C 92 % 1018,0 hPa 0,0 l/m 0 min 0 min 0 W/m 9,7 km/h (2 Bft) 100,00 %
08.10.2020 01:32 9,9 C 9,4 C 8,9 C 92 % 1017,9 hPa 0,0 l/m 0 min 0 min 0 W/m 9,7 km/h (2 Bft) 100,00 %
08.10.2020 01:34 9,9 C 9,4 C 8,9 C 92 % 1018,0 hPa 0,0 l/m 0 min 0 min 0 W/m 19,3 km/h (3 Bft) 97,83 %
08.10.2020 01:36 9,9 C 9,4 C 8,9 C 92 % 1018,0 hPa 0,0 l/m 0 min 0 min 0 W/m 9,7 km/h (2 Bft) 100,00 %
08.10.2020 01:38 9,9 C 9,4 C 8,9 C 92 % 1018,0 hPa 0,0 l/m 0 min 0 min 0 W/m 12,9 km/h (3 Bft) 100,00 %
08.10.2020 01:40 9,9 C 9,4 C 8,9 C 92 % 1018,0 hPa 0,0 l/m 0 min 0 min 0 W/m 12,9 km/h (3 Bft) 100,00 %
08.10.2020 01:42 9,9 C 9,4 C 8,9 C 92 % 1018,0 hPa 0,0 l/m 0 min 0 min 0 W/m 12,9 km/h (3 Bft) 97,87 %
08.10.2020 01:44 9,9 C 9,4 C 8,9 C 92 % 1018,1 hPa 0,0 l/m 0 min 0 min 0 W/m 16,1 km/h (3 Bft) 95,74 %
08.10.2020 01:46 9,9 C 9,4 C 8,9 C 92 % 1018,0 hPa 0,0 l/m 0 min 0 min 0 W/m 9,7 km/h (2 Bft) 97,92 %
08.10.2020 01:48 9,9 C 9,4 C 8,9 C 92 % 1018,0 hPa 0,0 l/m 0 min 0 min 0 W/m 16,1 km/h (3 Bft) 97,92 %
08.10.2020 01:50 9,9 C 9,4 C 8,9 C 92 % 1018,0 hPa 0,0 l/m 0 min 0 min 0 W/m 6,4 km/h (2 Bft) 97,92 %
08.10.2020 01:52 9,9 C 8,9 C 8,9 C 92 % 1018,0 hPa 0,0 l/m 0 min 0 min 0 W/m 12,9 km/h (3 Bft) 97,87 %
08.10.2020 01:54 9,9 C 9,4 C 8,9 C 92 % 1018,0 hPa 0,0 l/m 0 min 0 min 0 W/m 12,9 km/h (3 Bft) 97,87 %
08.10.2020 01:56 9,9 C 9,4 C 8,9 C 92 % 1018,0 hPa 0,0 l/m 0 min 0 min 0 W/m 19,3 km/h (3 Bft) 97,87 %
08.10.2020 01:58 9,9 C 9,4 C 8,9 C 92 % 1017,9 hPa 0,0 l/m 0 min 0 min 0 W/m 12,9 km/h (3 Bft) 95,83 %
08.10.2020 02:00 9,9 C 8,9 C 8,9 C 92 % 1017,8 hPa 0,0 l/m 0 min 0 min 0 W/m 16,1 km/h (3 Bft) 95,74 %
08.10.2020 02:02 9,9 C 8,9 C 8,9 C 92 % 1017,9 hPa 0,0 l/m 0 min 0 min 0 W/m 16,1 km/h (3 Bft) 97,87 %
08.10.2020 02:04 9,9 C 8,9 C 8,9 C 92 % 1017,9 hPa 0,0 l/m 0 min 0 min 0 W/m 19,3 km/h (3 Bft) 97,83 %
08.10.2020 02:06 9,9 C 9,4 C 8,9 C 92 % 1017,9 hPa 0,0 l/m 0 min 0 min 0 W/m 12,9 km/h (3 Bft) 97,87 %
08.10.2020 02:08 9,9 C 9,4 C 8,9 C 92 % 1017,9 hPa 0,0 l/m 0 min 0 min 0 W/m 16,1 km/h (3 Bft) 97,56 %
08.10.2020 02:10 9,9 C 9,4 C 8,9 C 92 % 1017,9 hPa 0,0 l/m 0 min 0 min 0 W/m 16,1 km/h (3 Bft) 97,87 %
08.10.2020 02:12 9,9 C 9,4 C 8,9 C 92 % 1017,9 hPa 0,0 l/m 0 min 0 min 0 W/m 6,4 km/h (2 Bft) 97,87 %
08.10.2020 02:14 9,9 C 8,9 C 8,9 C 92 % 1017,9 hPa 0,0 l/m 0 min 0 min 0 W/m 9,7 km/h (2 Bft) 97,87 %
08.10.2020 02:16 9,9 C 9,4 C 8,9 C 92 % 1018,0 hPa 0,0 l/m 0 min 0 min 0 W/m 12,9 km/h (3 Bft) 97,92 %
08.10.2020 02:18 9,9 C 8,9 C 8,9 C 92 % 1017,9 hPa 0,0 l/m 0 min 0 min 0 W/m 9,7 km/h (2 Bft) 95,83 %
08.10.2020 02:20 9,9 C 8,9 C 8,9 C 92 % 1017,9 hPa 0,0 l/m 0 min 0 min 0 W/m 9,7 km/h (2 Bft) 97,87 %
08.10.2020 02:22 9,9 C 9,4 C 8,9 C 92 % 1018,0 hPa 0,0 l/m 0 min 0 min 0 W/m 9,7 km/h (2 Bft) 97,92 %
08.10.2020 02:24 9,9 C 9,4 C 8,9 C 92 % 1017,9 hPa 0,0 l/m 0 min 0 min 0 W/m 16,1 km/h (3 Bft) 97,92 %
08.10.2020 02:26 9,9 C 9,4 C 8,9 C 92 % 1017,9 hPa 0,0 l/m 0 min 0 min 0 W/m 16,1 km/h (3 Bft) 97,92 %
08.10.2020 02:28 9,9 C 9,4 C 8,9 C 92 % 1017,8 hPa 0,0 l/m 0 min 0 min 0 W/m 12,9 km/h (3 Bft) 97,83 %
08.10.2020 02:30 9,9 C 9,4 C 8,9 C 92 % 1017,8 hPa 0,0 l/m 0 min 0 min 0 W/m 12,9 km/h (3 Bft) 97,87 %
08.10.2020 02:32 9,9 C 9,4 C 8,9 C 92 % 1017,8 hPa 0,0 l/m 0 min 0 min 0 W/m 12,9 km/h (3 Bft) 93,75 %
08.10.2020 02:34 9,9 C 9,4 C 8,9 C 92 % 1017,8 hPa 0,0 l/m 0 min 0 min 0 W/m 12,9 km/h (3 Bft) 97,87 %
08.10.2020 02:36 9,9 C 9,4 C 8,9 C 92 % 1017,7 hPa 0,0 l/m 0 min 0 min 0 W/m 16,1 km/h (3 Bft) 97,87 %
08.10.2020 02:38 9,9 C 9,4 C 8,9 C 92 % 1017,8 hPa 0,0 l/m 0 min 0 min 0 W/m 12,9 km/h (3 Bft) 97,87 %
08.10.2020 02:40 9,9 C 9,4 C 8,9 C 92 % 1017,7 hPa 0,0 l/m 0 min 0 min 0 W/m 19,3 km/h (3 Bft) 97,56 %
08.10.2020 02:42 9,9 C 9,4 C 8,9 C 92 % 1017,7 hPa 0,0 l/m 0 min 0 min 0 W/m 22,5 km/h (4 Bft) 97,87 %
08.10.2020 02:44 9,9 C 9,4 C 8,9 C 92 % 1017,7 hPa 0,0 l/m 0 min 0 min 0 W/m 19,3 km/h (3 Bft) 97,87 %
08.10.2020 02:46 9,9 C 9,4 C 8,9 C 92 % 1017,7 hPa 0,0 l/m 0 min 0 min 0 W/m 16,1 km/h (3 Bft) 95,83 %
08.10.2020 02:48 9,9 C 9,4 C 8,9 C 92 % 1017,7 hPa 0,0 l/m 0 min 0 min 0 W/m 12,9 km/h (3 Bft) 95,83 %
08.10.2020 02:50 9,9 C 9,4 C 8,9 C 92 % 1017,7 hPa 0,0 l/m 0 min 0 min 0 W/m 0,0 km/h (0 Bft) 100,00 %
08.10.2020 02:52 9,9 C 9,4 C 8,9 C 92 % 1017,7 hPa 0,0 l/m 0 min 0 min 0 W/m 0,0 km/h (0 Bft) 100,00 %
08.10.2020 02:54 9,9 C 9,4 C 8,9 C 92 % 1017,7 hPa 0,0 l/m 0 min 0 min 0 W/m 12,9 km/h (3 Bft) 100,00 %
08.10.2020 02:56 9,9 C 9,4 C 8,9 C 92 % 1017,7 hPa 0,0 l/m 0 min 0 min 0 W/m 9,7 km/h (2 Bft) 97,87 %
08.10.2020 02:58 9,9 C 9,4 C 8,9 C 92 % 1017,7 hPa 0,0 l/m 0 min 0 min 0 W/m 19,3 km/h (3 Bft) 95,83 %
08.10.2020 03:00 9,9 C 9,4 C 8,9 C 92 % 1017,8 hPa 0,0 l/m 0 min 0 min 0 W/m 22,5 km/h (4 Bft) 97,87 %
08.10.2020 03:02 9,9 C 9,4 C 8,9 C 92 % 1017,8 hPa 0,0 l/m 0 min 0 min 0 W/m 16,1 km/h (3 Bft) 97,83 %
08.10.2020 03:04 10,0 C 9,4 C 8,9 C 92 % 1017,7 hPa 0,0 l/m 0 min 0 min 0 W/m 16,1 km/h (3 Bft) 97,87 %
08.10.2020 03:06 10,0 C 9,4 C 8,9 C 92 % 1017,7 hPa 0,0 l/m 0 min 0 min 0 W/m 22,5 km/h (4 Bft) 97,87 %
08.10.2020 03:08 10,0 C 9,4 C 8,9 C 92 % 1017,7 hPa 0,0 l/m 0 min 0 min 0 W/m 22,5 km/h (4 Bft) 97,56 %
08.10.2020 03:10 10,0 C 9,4 C 8,9 C 92 % 1017,7 hPa 0,0 l/m 0 min 0 min 0 W/m 22,5 km/h (4 Bft) 97,87 %
08.10.2020 03:12 10,1 C 9,4 C 8,9 C 92 % 1017,6 hPa 0,0 l/m 0 min 0 min 0 W/m 16,1 km/h (3 Bft) 97,92 %
08.10.2020 03:14 10,1 C 9,4 C 8,9 C 92 % 1017,6 hPa 0,0 l/m 0 min 0 min 0 W/m 9,7 km/h (2 Bft) 95,74 %
08.10.2020 03:16 10,1 C 9,4 C 8,9 C 92 % 1017,6 hPa 0,0 l/m 0 min 0 min 0 W/m 9,7 km/h (2 Bft) 95,74 %
08.10.2020 03:18 10,1 C 9,4 C 8,9 C 92 % 1017,6 hPa 0,0 l/m 0 min 0 min 0 W/m 6,4 km/h (2 Bft) 91,67 %
08.10.2020 03:20 10,1 C 9,4 C 8,9 C 92 % 1017,6 hPa 0,0 l/m 0 min 0 min 0 W/m 16,1 km/h (3 Bft) 95,83 %
08.10.2020 03:22 10,1 C 9,4 C 8,9 C 92 % 1017,6 hPa 0,0 l/m 0 min 0 min 0 W/m 16,1 km/h (3 Bft) 95,83 %
08.10.2020 03:24 10,1 C 9,4 C 8,9 C 92 % 1017,5 hPa 0,0 l/m 0 min 0 min 0 W/m 9,7 km/h (2 Bft) 95,83 %
08.10.2020 03:26 10,1 C 9,4 C 8,9 C 92 % 1017,5 hPa 0,0 l/m 0 min 0 min 0 W/m 9,7 km/h (2 Bft) 95,74 %
08.10.2020 03:28 10,1 C 9,4 C 8,9 C 92 % 1017,5 hPa 0,0 l/m 0 min 0 min 0 W/m 12,9 km/h (3 Bft) 93,62 %
08.10.2020 03:30 10,1 C 9,4 C 8,9 C 92 % 1017,4 hPa 0,0 l/m 0 min 0 min 0 W/m 9,7 km/h (2 Bft) 95,74 %
08.10.2020 03:32 10,1 C 9,4 C 8,9 C 92 % 1017,4 hPa 0,0 l/m 0 min 0 min 0 W/m 0,0 km/h (0 Bft) 93,62 %
08.10.2020 03:34 10,2 C 9,4 C 8,9 C 92 % 1017,4 hPa 0,0 l/m 0 min 0 min 0 W/m 0,0 km/h (0 Bft) 93,62 %
08.10.2020 03:36 10,2 C 9,4 C 8,9 C 92 % 1017,5 hPa 0,0 l/m 0 min 0 min 0 W/m 6,4 km/h (2 Bft) 95,65 %
08.10.2020 03:38 10,2 C 9,4 C 8,9 C 92 % 1017,4 hPa 0,0 l/m 0 min 0 min 0 W/m 6,4 km/h (2 Bft) 95,74 %
08.10.2020 03:40 10,2 C 9,4 C 8,9 C 92 % 1017,4 hPa 0,0 l/m 0 min 0 min 0 W/m 9,7 km/h (2 Bft) 95,74 %
08.10.2020 03:42 10,2 C 9,4 C 8,9 C 92 % 1017,5 hPa 0,0 l/m 0 min 0 min 0 W/m 6,4 km/h (2 Bft) 97,87 %
08.10.2020 03:44 10,2 C 9,4 C 8,9 C 92 % 1017,4 hPa 0,0 l/m 0 min 0 min 0 W/m 3,2 km/h (1 Bft) 97,87 %
08.10.2020 03:46 10,2 C 9,4 C 8,9 C 92 % 1017,4 hPa 0,0 l/m 0 min 0 min 0 W/m 3,2 km/h (1 Bft) 97,56 %
08.10.2020 03:48 10,2 C 9,4 C 8,9 C 92 % 1017,4 hPa 0,0 l/m 0 min 0 min 0 W/m 6,4 km/h (2 Bft) 95,83 %
08.10.2020 03:50 10,2 C 9,4 C 8,9 C 92 % 1017,4 hPa 0,0 l/m 0 min 0 min 0 W/m 12,9 km/h (3 Bft) 97,92 %
08.10.2020 03:52 10,2 C 9,4 C 8,9 C 92 % 1017,4 hPa 0,0 l/m 0 min 0 min 0 W/m 3,2 km/h (1 Bft) 95,74 %
08.10.2020 03:54 10,2 C 9,4 C 9,4 C 92 % 1017,4 hPa 0,0 l/m 0 min 0 min 0 W/m 12,9 km/h (3 Bft) 97,92 %
08.10.2020 03:56 10,2 C 9,4 C 9,4 C 92 % 1017,4 hPa 0,0 l/m 0 min 0 min 0 W/m 3,2 km/h (1 Bft) 97,92 %
08.10.2020 03:58 10,2 C 9,4 C 9,4 C 92 % 1017,4 hPa 0,0 l/m 0 min 0 min 0 W/m 0,0 km/h (0 Bft) 97,92 %
08.10.2020 04:00 10,2 C 9,4 C 9,4 C 92 % 1017,4 hPa 0,0 l/m 0 min 0 min 0 W/m 0,0 km/h (0 Bft) 97,83 %
08.10.2020 04:02 10,2 C 9,4 C 9,4 C 92 % 1017,4 hPa 0,0 l/m 0 min 0 min 0 W/m 0,0 km/h (0 Bft) 100,00 %
08.10.2020 04:04 10,2 C 9,4 C 9,4 C 92 % 1017,4 hPa 0,0 l/m 0 min 0 min 0 W/m 0,0 km/h (0 Bft) 97,87 %
08.10.2020 04:06 10,2 C 9,4 C 9,4 C 92 % 1017,4 hPa 0,0 l/m 0 min 0 min 0 W/m 12,9 km/h (3 Bft) 100,00 %
08.10.2020 04:08 10,3 C 10,0 C 9,4 C 92 % 1017,4 hPa 0,0 l/m 0 min 0 min 0 W/m 6,4 km/h (2 Bft) 97,92 %
08.10.2020 04:10 10,3 C 9,4 C 9,4 C 92 % 1017,5 hPa 0,0 l/m 0 min 0 min 0 W/m 3,2 km/h (1 Bft) 100,00 %
08.10.2020 04:12 10,3 C 9,4 C 9,4 C 92 % 1017,5 hPa 0,0 l/m 0 min 2 min 0 W/m 0,0 km/h (0 Bft) 100,00 %
08.10.2020 04:14 10,3 C 9,4 C 9,4 C 92 % 1017,4 hPa 0,0 l/m 0 min 2 min 0 W/m 12,9 km/h (3 Bft) 100,00 %
08.10.2020 04:16 10,3 C 9,4 C 9,4 C 92 % 1017,4 hPa 0,0 l/m 0 min 2 min 0 W/m 16,1 km/h (3 Bft) 100,00 %
08.10.2020 04:18 10,3 C 8,9 C 9,4 C 92 % 1017,4 hPa 0,0 l/m 0 min 2 min 0 W/m 16,1 km/h (3 Bft) 100,00 %
08.10.2020 04:20 10,3 C 8,9 C 8,9 C 92 % 1017,4 hPa 0,0 l/m 0 min 2 min 0 W/m 6,4 km/h (2 Bft) 97,87 %
08.10.2020 04:22 10,3 C 8,9 C 8,9 C 92 % 1017,3 hPa 0,0 l/m 0 min 2 min 0 W/m 6,4 km/h (2 Bft) 100,00 %
08.10.2020 04:24 10,4 C 8,9 C 8,9 C 92 % 1017,4 hPa 0,0 l/m 0 min 2 min 0 W/m 0,0 km/h (0 Bft) 100,00 %
08.10.2020 04:26 10,4 C 8,9 C 8,9 C 92 % 1017,3 hPa 0,0 l/m 0 min 2 min 0 W/m 0,0 km/h (0 Bft) 100,00 %
08.10.2020 04:28 10,4 C 8,9 C 8,9 C 93 % 1017,3 hPa 0,0 l/m 0 min 2 min 0 W/m 0,0 km/h (0 Bft) 100,00 %
08.10.2020 04:30 10,4 C 8,9 C 8,9 C 93 % 1017,3 hPa 0,0 l/m 0 min 2 min 0 W/m 9,7 km/h (2 Bft) 100,00 %
08.10.2020 04:32 10,4 C 8,9 C 8,9 C 93 % 1017,3 hPa 0,0 l/m 0 min 2 min 0 W/m 3,2 km/h (1 Bft) 100,00 %
08.10.2020 04:34 10,4 C 8,9 C 8,9 C 93 % 1017,3 hPa 0,0 l/m 0 min 2 min 0 W/m 0,0 km/h (0 Bft) 100,00 %
08.10.2020 04:36 10,4 C 8,9 C 8,9 C 93 % 1017,3 hPa 0,0 l/m 0 min 2 min 0 W/m 0,0 km/h (0 Bft) 100,00 %
08.10.2020 04:38 10,4 C 8,9 C 8,9 C 93 % 1017,1 hPa 0,0 l/m 0 min 2 min 0 W/m 6,4 km/h (2 Bft) 100,00 %
08.10.2020 04:40 10,4 C 8,9 C 8,9 C 93 % 1017,1 hPa 0,0 l/m 0 min 2 min 0 W/m 6,4 km/h (2 Bft) 100,00 %
08.10.2020 04:42 10,4 C 8,9 C 8,9 C 93 % 1017,1 hPa 0,0 l/m 0 min 2 min 0 W/m 0,0 km/h (0 Bft) 100,00 %
08.10.2020 04:44 10,4 C 8,9 C 8,9 C 93 % 1017,1 hPa 0,0 l/m 0 min 0 min 0 W/m 0,0 km/h (0 Bft) 100,00 %
08.10.2020 04:46 10,4 C 8,9 C 8,9 C 93 % 1017,1 hPa 0,2 l/m 0 min 0 min 0 W/m 0,0 km/h (0 Bft) 100,00 %
08.10.2020 04:48 10,4 C 8,9 C 8,9 C 93 % 1017,1 hPa 0,0 l/m 0 min 0 min 0 W/m 0,0 km/h (0 Bft) 100,00 %
08.10.2020 04:50 10,4 C 8,9 C 8,9 C 93 % 1017,1 hPa 0,0 l/m 0 min 0 min 0 W/m 0,0 km/h (0 Bft) 100,00 %
08.10.2020 04:52 10,4 C 8,9 C 8,9 C 93 % 1017,1 hPa 0,0 l/m 0 min 0 min 0 W/m 0,0 km/h (0 Bft) 100,00 %
08.10.2020 04:54 10,5 C 8,9 C 8,9 C 93 % 1017,1 hPa 0,0 l/m 0 min 0 min 0 W/m 0,0 km/h (0 Bft) 100,00 %
08.10.2020 04:56 10,4 C 8,9 C 8,9 C 93 % 1017,1 hPa 0,0 l/m 0 min 0 min 0 W/m 0,0 km/h (0 Bft) 100,00 %
08.10.2020 04:58 10,4 C 8,9 C 8,9 C 93 % 1017,1 hPa 0,0 l/m 0 min 0 min 0 W/m 0,0 km/h (0 Bft) 100,00 %
08.10.2020 05:00 10,4 C 8,9 C 8,9 C 93 % 1017,0 hPa 0,0 l/m 0 min 0 min 0 W/m 0,0 km/h (0 Bft) 100,00 %
08.10.2020 05:02 10,4 C 8,9 C 8,9 C 94 % 1017,0 hPa 0,0 l/m 0 min 0 min 0 W/m 3,2 km/h (1 Bft) 100,00 %
08.10.2020 05:04 10,4 C 8,9 C 8,9 C 94 % 1016,9 hPa 0,0 l/m 0 min 0 min 0 W/m 6,4 km/h (2 Bft) 97,87 %
08.10.2020 05:06 10,4 C 8,9 C 8,9 C 94 % 1016,9 hPa 0,0 l/m 0 min 0 min 0 W/m 6,4 km/h (2 Bft) 100,00 %
08.10.2020 05:08 10,4 C 8,9 C 8,9 C 94 % 1016,9 hPa 0,0 l/m 0 min 0 min 0 W/m 0,0 km/h (0 Bft) 100,00 %
08.10.2020 05:10 10,4 C 8,9 C 8,9 C 94 % 1016,9 hPa 0,0 l/m 0 min 0 min 0 W/m 0,0 km/h (0 Bft) 100,00 %
08.10.2020 05:12 10,4 C 8,9 C 8,9 C 94 % 1016,9 hPa 0,0 l/m 0 min 0 min 0 W/m 0,0 km/h (0 Bft) 97,92 %
08.10.2020 05:14 10,4 C 8,9 C 8,9 C 94 % 1016,9 hPa 0,0 l/m 0 min 0 min 0 W/m 0,0 km/h (0 Bft) 100,00 %
08.10.2020 05:16 10,4 C 8,9 C 8,9 C 94 % 1016,9 hPa 0,0 l/m 0 min 0 min 0 W/m 0,0 km/h (0 Bft) 95,83 %
08.10.2020 05:18 10,4 C 8,9 C 8,9 C 94 % 1016,8 hPa 0,0 l/m 0 min 0 min 0 W/m 3,2 km/h (1 Bft) 97,92 %
08.10.2020 05:20 10,4 C 8,9 C 8,9 C 94 % 1016,8 hPa 0,0 l/m 0 min 0 min 0 W/m 6,4 km/h (2 Bft) 97,92 %
08.10.2020 05:22 10,4 C 8,9 C 8,9 C 94 % 1016,8 hPa 0,0 l/m 0 min 0 min 0 W/m 0,0 km/h (0 Bft) 100,00 %
08.10.2020 05:24 10,4 C 8,9 C 8,9 C 94 % 1016,8 hPa 0,0 l/m 0 min 0 min 0 W/m 0,0 km/h (0 Bft) 97,83 %
08.10.2020 05:26 10,4 C 8,9 C 8,9 C 94 % 1016,7 hPa 0,0 l/m 0 min 0 min 0 W/m 6,4 km/h (2 Bft) 97,92 %
08.10.2020 05:28 10,4 C 8,9 C 8,9 C 94 % 1016,7 hPa 0,0 l/m 0 min 0 min 0 W/m 0,0 km/h (0 Bft) 95,83 %
08.10.2020 05:30 10,4 C 8,9 C 8,9 C 94 % 1016,7 hPa 0,0 l/m 0 min 2 min 0 W/m 0,0 km/h (0 Bft) 48,84 %
08.10.2020 05:32 10,4 C 8,9 C 8,9 C 94 % 1016,7 hPa 0,0 l/m 0 min 2 min 0 W/m 6,4 km/h (2 Bft) 93,48 %
08.10.2020 05:34 10,4 C 8,9 C 8,9 C 94 % 1016,7 hPa 0,0 l/m 0 min 2 min 0 W/m 6,4 km/h (2 Bft) 95,74 %
08.10.2020 05:36 10,4 C 8,9 C 8,9 C 95 % 1016,7 hPa 0,0 l/m 0 min 2 min 0 W/m 6,4 km/h (2 Bft) 97,87 %
08.10.2020 05:38 10,4 C 8,9 C 8,9 C 95 % 1016,7 hPa 0,0 l/m 0 min 0 min 0 W/m 16,1 km/h (3 Bft) 95,74 %
08.10.2020 05:40 10,4 C 9,4 C 8,9 C 95 % 1016,7 hPa 0,0 l/m 0 min 0 min 0 W/m 0,0 km/h (0 Bft) 95,12 %
08.10.2020 05:42 10,4 C 9,4 C 8,9 C 95 % 1016,7 hPa 0,0 l/m 0 min 0 min 0 W/m 6,4 km/h (2 Bft) 95,74 %
08.10.2020 05:44 10,4 C 9,4 C 8,9 C 95 % 1016,6 hPa 0,0 l/m 0 min 2 min 0 W/m 0,0 km/h (0 Bft) 93,62 %
08.10.2020 05:46 10,4 C 9,4 C 8,9 C 95 % 1016,6 hPa 0,0 l/m 0 min 2 min 0 W/m 0,0 km/h (0 Bft) 93,62 %
08.10.2020 05:48 10,4 C 9,4 C 8,9 C 95 % 1016,5 hPa 0,0 l/m 0 min 0 min 0 W/m 12,9 km/h (3 Bft) 95,65 %
08.10.2020 05:50 10,4 C 8,9 C 8,9 C 95 % 1016,5 hPa 0,0 l/m 0 min 0 min 0 W/m 6,4 km/h (2 Bft) 95,74 %
08.10.2020 05:52 10,4 C 8,9 C 8,9 C 95 % 1016,5 hPa 0,0 l/m 0 min 0 min 0 W/m 3,2 km/h (1 Bft) 95,74 %
08.10.2020 05:54 10,4 C 8,9 C 8,9 C 95 % 1016,5 hPa 0,0 l/m 0 min 2 min 0 W/m 3,2 km/h (1 Bft) 95,74 %
08.10.2020 05:56 10,4 C 8,9 C 8,9 C 95 % 1016,4 hPa 0,0 l/m 0 min 2 min 0 W/m 0,0 km/h (0 Bft) 95,74 %
08.10.2020 05:58 10,4 C 8,9 C 8,9 C 95 % 1016,5 hPa 0,0 l/m 0 min 2 min 0 W/m 0,0 km/h (0 Bft) 95,74 %
08.10.2020 06:00 10,3 C 8,9 C 8,9 C 95 % 1016,4 hPa 0,0 l/m 0 min 2 min 0 W/m 0,0 km/h (0 Bft) 91,49 %
08.10.2020 06:02 10,3 C 8,9 C 8,9 C 95 % 1016,4 hPa 0,0 l/m 0 min 2 min 0 W/m 12,9 km/h (3 Bft) 91,49 %
08.10.2020 06:04 10,3 C 8,9 C 8,9 C 95 % 1016,4 hPa 0,0 l/m 0 min 2 min 0 W/m 12,9 km/h (3 Bft) 92,00 %
08.10.2020 06:08 10,3 C 8,9 C 8,9 C 95 % 1016,3 hPa 0,0 l/m 0 min 4 min 0 W/m 6,4 km/h (2 Bft) 92,63 %
08.10.2020 06:10 10,3 C 8,9 C 8,9 C 95 % 1016,3 hPa 0,0 l/m 0 min 2 min 0 W/m 16,1 km/h (3 Bft) 93,62 %
08.10.2020 06:12 10,3 C 8,9 C 8,9 C 95 % 1016,2 hPa 0,0 l/m 0 min 2 min 0 W/m 6,4 km/h (2 Bft) 93,62 %
08.10.2020 06:14 10,3 C 8,9 C 8,9 C 95 % 1016,2 hPa 0,0 l/m 0 min 2 min 0 W/m 19,3 km/h (3 Bft) 93,62 %
08.10.2020 06:16 10,3 C 8,9 C 8,9 C 95 % 1016,2 hPa 0,0 l/m 0 min 2 min 0 W/m 12,9 km/h (3 Bft) 93,62 %
08.10.2020 06:18 10,3 C 8,9 C 8,9 C 95 % 1016,2 hPa 0,0 l/m 0 min 2 min 0 W/m 16,1 km/h (3 Bft) 93,62 %
08.10.2020 06:20 10,3 C 8,9 C 8,9 C 95 % 1016,1 hPa 0,0 l/m 0 min 2 min 0 W/m 12,9 km/h (3 Bft) 95,65 %
08.10.2020 06:22 10,2 C 8,9 C 8,9 C 95 % 1016,1 hPa 0,0 l/m 0 min 2 min 0 W/m 6,4 km/h (2 Bft) 95,74 %
08.10.2020 06:24 10,2 C 8,9 C 8,9 C 96 % 1016,1 hPa 0,0 l/m 0 min 2 min 0 W/m 3,2 km/h (1 Bft) 95,74 %
08.10.2020 06:26 10,2 C 8,9 C 8,9 C 96 % 1015,9 hPa 0,0 l/m 0 min 2 min 0 W/m 0,0 km/h (0 Bft) 95,12 %
08.10.2020 06:28 10,2 C 8,9 C 8,9 C 96 % 1016,0 hPa 0,0 l/m 0 min 2 min 0 W/m 12,9 km/h (3 Bft) 93,75 %
08.10.2020 06:30 10,2 C 8,9 C 8,9 C 96 % 1015,9 hPa 0,0 l/m 0 min 2 min 0 W/m 12,9 km/h (3 Bft) 95,83 %
08.10.2020 06:32 10,2 C 8,9 C 8,9 C 96 % 1015,9 hPa 0,0 l/m 0 min 2 min 0 W/m 16,1 km/h (3 Bft) 91,84 %
08.10.2020 06:34 10,2 C 8,9 C 8,9 C 96 % 1015,9 hPa 0,0 l/m 0 min 0 min 0 W/m 3,2 km/h (1 Bft) 95,65 %
08.10.2020 06:36 10,2 C 8,9 C 8,9 C 96 % 1015,8 hPa 0,0 l/m 0 min 0 min 0 W/m 6,4 km/h (2 Bft) 95,83 %
08.10.2020 06:38 10,1 C 8,9 C 8,9 C 96 % 1015,8 hPa 0,0 l/m 0 min 0 min 0 W/m 6,4 km/h (2 Bft) 95,74 %
08.10.2020 06:40 10,1 C 8,9 C 8,9 C 96 % 1015,6 hPa 0,0 l/m 0 min 0 min 0 W/m 12,9 km/h (3 Bft) 97,92 %
08.10.2020 06:42 10,1 C 8,9 C 8,9 C 96 % 1015,6 hPa 0,0 l/m 0 min 0 min 0 W/m 3,2 km/h (1 Bft) 97,83 %
08.10.2020 06:44 10,1 C 8,9 C 8,9 C 96 % 1015,6 hPa 0,0 l/m 0 min 0 min 0 W/m 12,9 km/h (3 Bft) 95,74 %
08.10.2020 06:46 10,1 C 8,9 C 8,9 C 96 % 1015,6 hPa 0,0 l/m 0 min 0 min 0 W/m 12,9 km/h (3 Bft) 95,74 %
08.10.2020 06:48 10,1 C 8,9 C 8,9 C 96 % 1015,7 hPa 0,0 l/m 0 min 0 min 0 W/m 6,4 km/h (2 Bft) 97,87 %
08.10.2020 06:50 10,1 C 8,9 C 8,9 C 96 % 1015,7 hPa 0,0 l/m 0 min 0 min 0 W/m 12,9 km/h (3 Bft) 100,00 %
08.10.2020 06:52 10,1 C 8,9 C 8,9 C 96 % 1015,6 hPa 0,0 l/m 0 min 0 min 0 W/m 12,9 km/h (3 Bft) 100,00 %
08.10.2020 06:54 10,1 C 8,9 C 8,9 C 96 % 1015,6 hPa 0,0 l/m 0 min 0 min 0 W/m 12,9 km/h (3 Bft) 100,00 %
08.10.2020 06:56 10,1 C 8,9 C 8,9 C 96 % 1015,7 hPa 0,0 l/m 0 min 0 min 0 W/m 19,3 km/h (3 Bft) 100,00 %
08.10.2020 06:58 10,1 C 8,9 C 8,9 C 96 % 1015,7 hPa 0,0 l/m 0 min 0 min 0 W/m 6,4 km/h (2 Bft) 100,00 %
08.10.2020 07:00 10,1 C 8,9 C 8,9 C 96 % 1015,6 hPa 0,0 l/m 0 min 0 min 0 W/m 6,4 km/h (2 Bft) 100,00 %
08.10.2020 07:02 10,1 C 8,9 C 8,9 C 96 % 1015,5 hPa 0,0 l/m 0 min 0 min 0 W/m 9,7 km/h (2 Bft) 100,00 %
08.10.2020 07:04 10,2 C 8,9 C 8,9 C 96 % 1015,5 hPa 0,0 l/m 0 min 0 min 0 W/m 3,2 km/h (1 Bft) 100,00 %
08.10.2020 07:06 10,2 C 8,9 C 8,9 C 96 % 1015,5 hPa 0,0 l/m 0 min 0 min 0 W/m 6,4 km/h (2 Bft) 100,00 %
08.10.2020 07:08 10,2 C 8,9 C 8,9 C 96 % 1015,5 hPa 0,0 l/m 0 min 0 min 0 W/m 6,4 km/h (2 Bft) 100,00 %
08.10.2020 07:10 10,2 C 9,4 C 8,9 C 96 % 1015,4 hPa 0,0 l/m 0 min 0 min 0 W/m 0,0 km/h (0 Bft) 100,00 %
08.10.2020 07:12 10,2 C 9,4 C 8,9 C 96 % 1015,3 hPa 0,0 l/m 0 min 2 min 0 W/m 0,0 km/h (0 Bft) 97,87 %
08.10.2020 07:14 10,2 C 9,4 C 8,9 C 96 % 1015,3 hPa 0,0 l/m 0 min 0 min 0 W/m 0,0 km/h (0 Bft) 97,87 %
08.10.2020 07:16 10,2 C 9,4 C 8,9 C 96 % 1015,3 hPa 0,0 l/m 0 min 0 min 0 W/m 16,1 km/h (3 Bft) 100,00 %
08.10.2020 07:18 10,2 C 9,4 C 8,9 C 96 % 1015,2 hPa 0,0 l/m 0 min 0 min 0 W/m 12,9 km/h (3 Bft) 100,00 %
08.10.2020 07:20 10,2 C 9,4 C 8,9 C 96 % 1015,2 hPa 0,0 l/m 0 min 0 min 0 W/m 12,9 km/h (3 Bft) 100,00 %
08.10.2020 07:22 10,2 C 9,4 C 8,9 C 96 % 1015,2 hPa 0,0 l/m 0 min 2 min 0 W/m 16,1 km/h (3 Bft) 100,00 %
08.10.2020 07:24 10,3 C 9,4 C 8,9 C 96 % 1015,2 hPa 0,0 l/m 0 min 0 min 0 W/m 6,4 km/h (2 Bft) 62,50 %
08.10.2020 07:26 10,3 C 9,4 C 8,9 C 97 % 1015,1 hPa 0,0 l/m 0 min 0 min 0 W/m 16,1 km/h (3 Bft) 95,12 %
08.10.2020 07:28 10,3 C 9,4 C 8,9 C 97 % 1015,0 hPa 0,0 l/m 0 min 0 min 0 W/m 6,4 km/h (2 Bft) 100,00 %
08.10.2020 07:30 10,3 C 9,4 C 8,9 C 97 % 1015,0 hPa 0,0 l/m 0 min 0 min 0 W/m 16,1 km/h (3 Bft) 100,00 %
08.10.2020 07:32 10,3 C 9,4 C 8,9 C 97 % 1015,0 hPa 0,2 l/m 0 min 2 min 0 W/m 12,9 km/h (3 Bft) 100,00 %
08.10.2020 07:34 10,3 C 9,4 C 8,9 C 97 % 1014,9 hPa 0,0 l/m 0 min 2 min 0 W/m 16,1 km/h (3 Bft) 97,87 %
08.10.2020 07:36 10,3 C 9,4 C 8,9 C 97 % 1014,9 hPa 0,0 l/m 0 min 0 min 0 W/m 6,4 km/h (2 Bft) 100,00 %
08.10.2020 07:38 10,3 C 9,4 C 9,4 C 97 % 1014,7 hPa 0,0 l/m 0 min 0 min 0 W/m 22,5 km/h (4 Bft) 100,00 %
08.10.2020 07:40 10,3 C 9,4 C 9,4 C 97 % 1014,8 hPa 0,0 l/m 0 min 0 min 0 W/m 16,1 km/h (3 Bft) 100,00 %
08.10.2020 07:42 10,4 C 9,4 C 9,4 C 97 % 1014,7 hPa 0,0 l/m 0 min 0 min 0 W/m 9,7 km/h (2 Bft) 97,87 %
08.10.2020 07:44 10,4 C 9,4 C 9,4 C 97 % 1014,7 hPa 0,0 l/m 0 min 0 min 0 W/m 16,1 km/h (3 Bft) 97,83 %
08.10.2020 07:46 10,4 C 9,4 C 9,4 C 97 % 1014,7 hPa 0,0 l/m 0 min 0 min 0 W/m 16,1 km/h (3 Bft) 100,00 %
08.10.2020 07:48 10,4 C 9,4 C 9,4 C 97 % 1014,7 hPa 0,0 l/m 0 min 0 min 0 W/m 12,9 km/h (3 Bft) 100,00 %
08.10.2020 07:50 10,4 C 9,4 C 9,4 C 97 % 1014,7 hPa 0,0 l/m 0 min 0 min 0 W/m 12,9 km/h (3 Bft) 97,87 %
08.10.2020 07:52 10,4 C 9,4 C 9,4 C 97 % 1014,7 hPa 0,0 l/m 0 min 0 min 0 W/m 16,1 km/h (3 Bft) 97,87 %
08.10.2020 07:54 10,4 C 9,4 C 9,4 C 97 % 1014,7 hPa 0,0 l/m 0 min 0 min 0 W/m 12,9 km/h (3 Bft) 100,00 %
08.10.2020 07:56 10,4 C 9,4 C 9,4 C 97 % 1014,7 hPa 0,0 l/m 0 min 0 min 0 W/m 22,5 km/h (4 Bft) 100,00 %
08.10.2020 07:58 10,4 C 9,4 C 9,4 C 97 % 1014,7 hPa 0,0 l/m 0 min 0 min 0 W/m 12,9 km/h (3 Bft) 100,00 %
08.10.2020 08:00 10,4 C 9,4 C 9,4 C 97 % 1014,6 hPa 0,0 l/m 0 min 0 min 0 W/m 12,9 km/h (3 Bft) 97,87 %
08.10.2020 08:02 10,4 C 9,4 C 9,4 C 97 % 1014,6 hPa 0,0 l/m 0 min 2 min 0 W/m 6,4 km/h (2 Bft) 97,87 %
08.10.2020 08:04 10,5 C 9,4 C 9,4 C 97 % 1014,6 hPa 0,0 l/m 0 min 2 min 0 W/m 19,3 km/h (3 Bft) 95,45 %
08.10.2020 08:06 10,5 C 9,4 C 9,4 C 97 % 1014,6 hPa 0,0 l/m 0 min 2 min 0 W/m 12,9 km/h (3 Bft) 97,87 %
08.10.2020 08:08 10,5 C 9,4 C 9,4 C 97 % 1014,5 hPa 0,0 l/m 0 min 0 min 0 W/m 0,0 km/h (0 Bft) 97,83 %
08.10.2020 08:10 10,6 C 9,4 C 9,4 C 97 % 1014,6 hPa 0,0 l/m 0 min 0 min 0 W/m 12,9 km/h (3 Bft) 97,87 %
08.10.2020 08:12 10,6 C 9,4 C 9,4 C 97 % 1014,5 hPa 0,0 l/m 0 min 0 min 0 W/m 16,1 km/h (3 Bft) 95,74 %
08.10.2020 08:14 10,6 C 9,4 C 9,4 C 97 % 1014,4 hPa 0,0 l/m 0 min 0 min 0 W/m 12,9 km/h (3 Bft) 97,92 %
08.10.2020 08:16 10,6 C 9,4 C 9,4 C 97 % 1014,4 hPa 0,0 l/m 0 min 0 min 0 W/m 12,9 km/h (3 Bft) 95,74 %
08.10.2020 08:18 10,6 C 9,4 C 9,4 C 97 % 1014,4 hPa 0,0 l/m 0 min 0 min 0 W/m 19,3 km/h (3 Bft) 97,83 %
08.10.2020 08:20 10,6 C 9,4 C 9,4 C 97 % 1014,4 hPa 0,0 l/m 0 min 0 min 0 W/m 19,3 km/h (3 Bft) 97,87 %
08.10.2020 08:22 10,6 C 9,4 C 9,4 C 97 % 1014,4 hPa 0,0 l/m 0 min 0 min 0 W/m 22,5 km/h (4 Bft) 97,87 %
08.10.2020 08:24 10,6 C 9,4 C 9,4 C 97 % 1014,4 hPa 0,0 l/m 0 min 0 min 1 W/m 12,9 km/h (3 Bft) 97,87 %
08.10.2020 08:26 10,6 C 9,4 C 9,4 C 97 % 1014,4 hPa 0,0 l/m 0 min 0 min 5 W/m 12,9 km/h (3 Bft) 95,74 %
08.10.2020 08:28 10,6 C 9,4 C 9,4 C 97 % 1014,4 hPa 0,0 l/m 0 min 0 min 7 W/m 12,9 km/h (3 Bft) 95,83 %
08.10.2020 08:30 10,6 C 9,4 C 9,4 C 97 % 1014,4 hPa 0,0 l/m 0 min 0 min 10 W/m 16,1 km/h (3 Bft) 97,87 %
08.10.2020 08:32 10,6 C 9,4 C 9,4 C 97 % 1014,4 hPa 0,0 l/m 0 min 0 min 11 W/m 12,9 km/h (3 Bft) 97,87 %
08.10.2020 08:34 10,6 C 9,4 C 9,4 C 97 % 1014,4 hPa 0,0 l/m 0 min 0 min 12 W/m 16,1 km/h (3 Bft) 100,00 %
08.10.2020 08:36 10,6 C 9,4 C 9,4 C 97 % 1014,4 hPa 0,0 l/m 0 min 0 min 12 W/m 16,1 km/h (3 Bft) 97,87 %
08.10.2020 08:38 10,7 C 9,4 C 9,4 C 97 % 1014,4 hPa 0,0 l/m 0 min 0 min 12 W/m 3,2 km/h (1 Bft) 95,65 %
08.10.2020 08:40 10,7 C 9,4 C 9,4 C 97 % 1014,4 hPa 0,0 l/m 0 min 0 min 9 W/m 6,4 km/h (2 Bft) 97,87 %
08.10.2020 08:42 10,7 C 9,4 C 9,4 C 97 % 1014,4 hPa 0,0 l/m 0 min 0 min 7 W/m 16,1 km/h (3 Bft) 95,74 %
08.10.2020 08:44 10,7 C 9,4 C 9,4 C 97 % 1014,4 hPa 0,0 l/m 0 min 0 min 9 W/m 12,9 km/h (3 Bft) 100,00 %
08.10.2020 08:46 10,7 C 10,0 C 9,4 C 97 % 1014,4 hPa 0,0 l/m 0 min 0 min 9 W/m 12,9 km/h (3 Bft) 100,00 %
08.10.2020 08:48 10,7 C 10,0 C 9,4 C 98 % 1014,5 hPa 0,0 l/m 0 min 0 min 9 W/m 19,3 km/h (3 Bft) 100,00 %
08.10.2020 08:50 10,8 C 10,0 C 9,4 C 98 % 1014,4 hPa 0,0 l/m 0 min 0 min 11 W/m 12,9 km/h (3 Bft) 97,83 %
08.10.2020 08:52 10,8 C 10,0 C 9,4 C 98 % 1014,5 hPa 0,0 l/m 0 min 0 min 12 W/m 12,9 km/h (3 Bft) 97,87 %
08.10.2020 08:54 10,8 C 10,0 C 9,4 C 98 % 1014,5 hPa 0,0 l/m 0 min 0 min 14 W/m 0,0 km/h (0 Bft) 97,87 %
08.10.2020 08:56 10,8 C 10,0 C 9,4 C 98 % 1014,5 hPa 0,0 l/m 0 min 0 min 18 W/m 12,9 km/h (3 Bft) 95,74 %
08.10.2020 08:58 10,8 C 10,0 C 10,0 C 98 % 1014,4 hPa 0,0 l/m 0 min 0 min 18 W/m 16,1 km/h (3 Bft) 95,74 %
08.10.2020 09:00 10,8 C 10,0 C 10,0 C 98 % 1014,4 hPa 0,0 l/m 0 min 0 min 18 W/m 12,9 km/h (3 Bft) 97,87 %
08.10.2020 09:02 10,9 C 10,0 C 10,0 C 98 % 1014,4 hPa 0,0 l/m 0 min 0 min 17 W/m 16,1 km/h (3 Bft) 91,30 %
08.10.2020 09:04 10,9 C 10,0 C 10,0 C 98 % 1014,3 hPa 0,0 l/m 0 min 0 min 20 W/m 16,1 km/h (3 Bft) 97,67 %
08.10.2020 09:06 10,9 C 10,0 C 10,0 C 98 % 1014,4 hPa 0,0 l/m 0 min 0 min 18 W/m 16,1 km/h (3 Bft) 97,87 %
08.10.2020 09:08 11,0 C 10,0 C 10,0 C 98 % 1014,4 hPa 0,0 l/m 0 min 0 min 13 W/m 6,4 km/h (2 Bft) 97,92 %
08.10.2020 09:10 11,0 C 10,0 C 10,0 C 98 % 1014,4 hPa 0,0 l/m 0 min 0 min 12 W/m 12,9 km/h (3 Bft) 97,87 %
08.10.2020 09:12 11,1 C 10,0 C 10,0 C 98 % 1014,4 hPa 0,0 l/m 0 min 0 min 12 W/m 16,1 km/h (3 Bft) 97,87 %
08.10.2020 09:14 11,1 C 10,6 C 10,0 C 98 % 1014,4 hPa 0,0 l/m 0 min 0 min 12 W/m 12,9 km/h (3 Bft) 97,87 %
08.10.2020 09:16 11,1 C 10,6 C 10,0 C 98 % 1014,4 hPa 0,0 l/m 0 min 0 min 16 W/m 12,9 km/h (3 Bft) 97,83 %
08.10.2020 09:18 11,1 C 10,6 C 10,0 C 98 % 1014,4 hPa 0,0 l/m 0 min 0 min 16 W/m 0,0 km/h (0 Bft) 97,87 %
08.10.2020 09:20 11,2 C 10,6 C 10,0 C 98 % 1014,3 hPa 0,0 l/m 0 min 0 min 23 W/m 6,4 km/h (2 Bft) 93,62 %
08.10.2020 09:22 11,2 C 10,6 C 10,0 C 98 % 1014,3 hPa 0,0 l/m 0 min 0 min 25 W/m 12,9 km/h (3 Bft) 97,87 %
08.10.2020 09:24 11,2 C 10,6 C 10,0 C 98 % 1014,3 hPa 0,0 l/m 0 min 0 min 28 W/m 12,9 km/h (3 Bft) 95,74 %
08.10.2020 09:26 11,3 C 10,6 C 10,0 C 98 % 1014,2 hPa 0,0 l/m 0 min 0 min 28 W/m 12,9 km/h (3 Bft) 93,62 %
08.10.2020 09:28 11,3 C 10,6 C 10,6 C 98 % 1014,2 hPa 0,0 l/m 0 min 0 min 40 W/m 12,9 km/h (3 Bft) 69,57 %
08.10.2020 09:30 11,3 C 10,6 C 10,6 C 98 % 1014,2 hPa 0,0 l/m 0 min 0 min 42 W/m 16,1 km/h (3 Bft) 76,74 %
08.10.2020 09:32 11,4 C 10,6 C 10,6 C 98 % 1014,1 hPa 0,0 l/m 0 min 0 min 44 W/m 12,9 km/h (3 Bft) 95,74 %
08.10.2020 09:34 11,4 C 11,1 C 10,6 C 98 % 1014,1 hPa 0,0 l/m 0 min 0 min 53 W/m 12,9 km/h (3 Bft) 93,62 %
08.10.2020 09:36 11,4 C 11,1 C 10,6 C 98 % 1014,0 hPa 0,0 l/m 0 min 0 min 48 W/m 12,9 km/h (3 Bft) 95,74 %
08.10.2020 09:38 11,5 C 11,1 C 10,6 C 98 % 1014,1 hPa 0,0 l/m 0 min 0 min 45 W/m 12,9 km/h (3 Bft) 93,62 %
08.10.2020 09:40 11,5 C 11,1 C 10,6 C 98 % 1014,0 hPa 0,0 l/m 0 min 0 min 40 W/m 6,4 km/h (2 Bft) 97,83 %
08.10.2020 09:42 11,6 C 11,1 C 10,6 C 98 % 1014,0 hPa 0,0 l/m 0 min 0 min 40 W/m 12,9 km/h (3 Bft) 97,87 %
08.10.2020 09:44 11,6 C 11,7 C 11,1 C 98 % 1014,0 hPa 0,0 l/m 0 min 0 min 45 W/m 12,9 km/h (3 Bft) 97,87 %
08.10.2020 09:46 11,7 C 11,7 C 11,1 C 98 % 1014,0 hPa 0,0 l/m 0 min 0 min 41 W/m 19,3 km/h (3 Bft) 93,62 %
08.10.2020 09:48 11,8 C 11,7 C 11,1 C 99 % 1014,0 hPa 0,0 l/m 0 min 0 min 47 W/m 19,3 km/h (3 Bft) 95,74 %
08.10.2020 09:50 11,9 C 11,7 C 11,1 C 98 % 1013,9 hPa 0,0 l/m 0 min 0 min 54 W/m 19,3 km/h (3 Bft) 97,87 %
08.10.2020 09:52 12,0 C 12,2 C 11,1 C 98 % 1013,8 hPa 0,0 l/m 0 min 0 min 55 W/m 16,1 km/h (3 Bft) 97,83 %
08.10.2020 09:54 12,1 C 12,2 C 11,7 C 99 % 1013,7 hPa 0,0 l/m 0 min 0 min 71 W/m 32,2 km/h (5 Bft) 97,87 %
08.10.2020 09:56 12,2 C 12,2 C 11,7 C 99 % 1013,7 hPa 0,0 l/m 0 min 0 min 87 W/m 19,3 km/h (3 Bft) 97,87 %
08.10.2020 09:58 12,3 C 12,2 C 11,7 C 99 % 1013,8 hPa 0,0 l/m 0 min 0 min 78 W/m 25,7 km/h (4 Bft) 97,87 %
08.10.2020 10:00 12,4 C 12,8 C 11,7 C 99 % 1013,7 hPa 0,0 l/m 0 min 0 min 77 W/m 19,3 km/h (3 Bft) 97,92 %
08.10.2020 10:02 12,4 C 12,8 C 11,7 C 99 % 1013,7 hPa 0,0 l/m 0 min 0 min 78 W/m 16,1 km/h (3 Bft) 95,65 %
08.10.2020 10:04 12,5 C 12,8 C 11,7 C 99 % 1013,7 hPa 0,0 l/m 0 min 0 min 66 W/m 6,4 km/h (2 Bft) 97,87 %
08.10.2020 10:06 12,6 C 12,8 C 11,7 C 99 % 1013,7 hPa 0,0 l/m 0 min 0 min 80 W/m 22,5 km/h (4 Bft) 97,14 %
08.10.2020 10:08 12,7 C 12,8 C 12,2 C 99 % 1013,6 hPa 0,0 l/m 0 min 0 min 130 W/m 22,5 km/h (4 Bft) 98,33 %
08.10.2020 10:10 12,8 C 12,8 C 12,2 C 99 % 1013,6 hPa 0,0 l/m 0 min 0 min 114 W/m 22,5 km/h (4 Bft) 97,14 %
08.10.2020 10:12 12,8 C 12,8 C 12,2 C 99 % 1013,7 hPa 0,0 l/m 0 min 0 min 83 W/m 25,7 km/h (4 Bft) 97,87 %
08.10.2020 10:14 12,9 C 12,8 C 12,2 C 99 % 1013,7 hPa 0,0 l/m 0 min 0 min 68 W/m 22,5 km/h (4 Bft) 97,87 %
08.10.2020 10:16 12,9 C 12,8 C 12,2 C 99 % 1013,6 hPa 0,0 l/m 0 min 0 min 68 W/m 19,3 km/h (3 Bft) 97,87 %
08.10.2020 10:18 13,0 C 12,8 C 12,2 C 99 % 1013,7 hPa 0,0 l/m 0 min 0 min 65 W/m 25,7 km/h (4 Bft) 97,83 %
08.10.2020 10:20 13,1 C 12,8 C 12,2 C 98 % 1013,6 hPa 0,0 l/m 0 min 0 min 62 W/m 22,5 km/h (4 Bft) 95,74 %
08.10.2020 10:22 13,1 C 12,8 C 12,2 C 98 % 1013,6 hPa 0,0 l/m 0 min 0 min 62 W/m 19,3 km/h (3 Bft) 97,87 %
08.10.2020 10:24 13,2 C 12,8 C 12,2 C 98 % 1013,7 hPa 0,0 l/m 0 min 0 min 52 W/m 19,3 km/h (3 Bft) 100,00 %
08.10.2020 10:26 13,2 C 12,8 C 12,2 C 98 % 1013,7 hPa 0,0 l/m 0 min 0 min 42 W/m 25,7 km/h (4 Bft) 100,00 %
08.10.2020 10:28 13,2 C 12,8 C 12,2 C 98 % 1013,7 hPa 0,0 l/m 0 min 0 min 38 W/m 22,5 km/h (4 Bft) 97,83 %
08.10.2020 10:30 13,3 C 12,8 C 12,2 C 98 % 1013,7 hPa 0,0 l/m 0 min 0 min 44 W/m 25,7 km/h (4 Bft) 97,87 %
08.10.2020 10:32 13,3 C 12,8 C 12,2 C 98 % 1013,7 hPa 0,0 l/m 0 min 0 min 50 W/m 22,5 km/h (4 Bft) 97,87 %
08.10.2020 10:34 13,3 C 12,8 C 12,2 C 98 % 1013,6 hPa 0,0 l/m 0 min 0 min 51 W/m 16,1 km/h (3 Bft) 100,00 %
08.10.2020 10:36 13,4 C 12,8 C 12,2 C 98 % 1013,6 hPa 0,0 l/m 0 min 0 min 49 W/m 19,3 km/h (3 Bft) 100,00 %
08.10.2020 10:38 13,4 C 12,8 C 12,2 C 98 % 1013,6 hPa 0,0 l/m 0 min 0 min 44 W/m 16,1 km/h (3 Bft) 97,87 %
08.10.2020 10:40 13,4 C 12,8 C 12,2 C 97 % 1013,7 hPa 0,0 l/m 0 min 0 min 50 W/m 35,4 km/h (5 Bft) 97,83 %
08.10.2020 10:42 13,5 C 12,8 C 12,2 C 97 % 1013,6 hPa 0,0 l/m 0 min 0 min 57 W/m 19,3 km/h (3 Bft) 97,87 %
08.10.2020 10:44 13,6 C 12,8 C 12,2 C 97 % 1013,6 hPa 0,0 l/m 0 min 0 min 56 W/m 19,3 km/h (3 Bft) 97,92 %
08.10.2020 10:46 13,6 C 13,3 C 12,2 C 97 % 1013,6 hPa 0,0 l/m 0 min 0 min 56 W/m 32,2 km/h (5 Bft) 95,83 %
08.10.2020 10:48 13,6 C 13,3 C 12,8 C 97 % 1013,7 hPa 0,0 l/m 0 min 0 min 51 W/m 29,0 km/h (5 Bft) 97,87 %
08.10.2020 10:50 13,6 C 13,3 C 12,8 C 97 % 1013,6 hPa 0,0 l/m 0 min 0 min 61 W/m 25,7 km/h (4 Bft) 97,83 %
08.10.2020 10:52 13,7 C 13,3 C 12,8 C 96 % 1013,6 hPa 0,0 l/m 0 min 0 min 70 W/m 29,0 km/h (5 Bft) 97,87 %
08.10.2020 10:54 13,7 C 13,3 C 12,8 C 96 % 1013,6 hPa 0,0 l/m 0 min 0 min 74 W/m 29,0 km/h (5 Bft) 95,74 %
08.10.2020 10:56 13,8 C 13,3 C 12,8 C 96 % 1013,8 hPa 0,0 l/m 0 min 0 min 82 W/m 29,0 km/h (5 Bft) 93,62 %
08.10.2020 10:58 13,9 C 13,3 C 12,8 C 95 % 1013,6 hPa 0,0 l/m 0 min 0 min 83 W/m 29,0 km/h (5 Bft) 97,87 %
08.10.2020 11:00 13,9 C 13,3 C 12,8 C 95 % 1013,5 hPa 0,0 l/m 0 min 0 min 78 W/m 35,4 km/h (5 Bft) 97,87 %
08.10.2020 11:02 14,1 C 13,3 C 12,8 C 95 % 1013,7 hPa 0,0 l/m 0 min 0 min 75 W/m 35,4 km/h (5 Bft) 97,83 %
08.10.2020 11:04 14,2 C 13,3 C 12,8 C 94 % 1013,7 hPa 0,0 l/m 0 min 0 min 66 W/m 29,0 km/h (5 Bft) 97,87 %
08.10.2020 11:06 14,3 C 13,3 C 12,8 C 93 % 1013,7 hPa 0,0 l/m 0 min 0 min 87 W/m 22,5 km/h (4 Bft) 97,87 %
08.10.2020 11:08 14,3 C 13,9 C 12,8 C 93 % 1013,6 hPa 0,0 l/m 0 min 0 min 93 W/m 25,7 km/h (4 Bft) 95,74 %
08.10.2020 11:10 14,3 C 13,9 C 13,3 C 93 % 1013,7 hPa 0,0 l/m 0 min 0 min 90 W/m 45,1 km/h (6 Bft) 97,87 %
08.10.2020 11:12 14,3 C 13,9 C 13,3 C 92 % 1013,7 hPa 0,0 l/m 0 min 0 min 81 W/m 57,9 km/h (7 Bft) 97,83 %
08.10.2020 11:14 14,4 C 13,9 C 13,3 C 92 % 1013,6 hPa 0,0 l/m 0 min 0 min 80 W/m 29,0 km/h (5 Bft) 97,92 %
08.10.2020 11:16 14,4 C 13,9 C 13,3 C 92 % 1013,6 hPa 0,0 l/m 0 min 0 min 98 W/m 19,3 km/h (3 Bft) 97,87 %
08.10.2020 11:18 14,5 C 13,9 C 13,3 C 92 % 1013,7 hPa 0,0 l/m 0 min 0 min 95 W/m 19,3 km/h (3 Bft) 97,87 %
08.10.2020 11:20 14,6 C 14,4 C 13,3 C 91 % 1013,7 hPa 0,0 l/m 0 min 0 min 92 W/m 32,2 km/h (5 Bft) 97,87 %
08.10.2020 11:22 14,6 C 14,4 C 13,3 C 91 % 1013,6 hPa 0,0 l/m 0 min 0 min 98 W/m 48,3 km/h (6 Bft) 97,87 %
08.10.2020 11:24 14,7 C 14,4 C 13,3 C 90 % 1013,5 hPa 0,0 l/m 0 min 0 min 94 W/m 35,4 km/h (5 Bft) 97,83 %
08.10.2020 11:26 14,7 C 14,4 C 13,3 C 90 % 1013,5 hPa 0,0 l/m 0 min 0 min 97 W/m 25,7 km/h (4 Bft) 97,62 %
08.10.2020 11:28 14,8 C 14,4 C 13,3 C 90 % 1013,5 hPa 0,0 l/m 0 min 0 min 89 W/m 32,2 km/h (5 Bft) 97,87 %
08.10.2020 11:30 14,8 C 14,4 C 13,3 C 90 % 1013,5 hPa 0,0 l/m 0 min 0 min 98 W/m 29,0 km/h (5 Bft) 100,00 %
08.10.2020 11:32 14,8 C 14,4 C 13,9 C 90 % 1013,5 hPa 0,0 l/m 0 min 0 min 114 W/m 32,2 km/h (5 Bft) 100,00 %
08.10.2020 11:34 14,9 C 15,0 C 13,9 C 89 % 1013,4 hPa 0,0 l/m 0 min 0 min 108 W/m 29,0 km/h (5 Bft) 97,87 %
08.10.2020 11:36 14,9 C 14,4 C 13,9 C 89 % 1013,4 hPa 0,0 l/m 0 min 0 min 100 W/m 29,0 km/h (5 Bft) 97,87 %
08.10.2020 11:38 14,9 C 15,0 C 13,9 C 89 % 1013,5 hPa 0,0 l/m 0 min 0 min 119 W/m 22,5 km/h (4 Bft) 95,65 %
08.10.2020 11:40 14,9 C 15,0 C 13,9 C 89 % 1013,4 hPa 0,0 l/m 0 min 0 min 125 W/m 25,7 km/h (4 Bft) 97,87 %
08.10.2020 11:42 15,1 C 15,0 C 13,9 C 89 % 1013,4 hPa 0,0 l/m 0 min 0 min 127 W/m 32,2 km/h (5 Bft) 95,74 %
08.10.2020 11:44 15,1 C 15,0 C 13,9 C 89 % 1013,4 hPa 0,0 l/m 0 min 0 min 105 W/m 25,7 km/h (4 Bft) 97,87 %
08.10.2020 11:46 15,1 C 15,0 C 13,9 C 88 % 1013,5 hPa 0,0 l/m 0 min 0 min 71 W/m 22,5 km/h (4 Bft) 97,87 %
08.10.2020 11:48 15,2 C 15,0 C 14,4 C 88 % 1013,5 hPa 0,0 l/m 0 min 0 min 53 W/m 32,2 km/h (5 Bft) 97,87 %
08.10.2020 11:50 15,2 C 15,0 C 14,4 C 88 % 1013,4 hPa 0,0 l/m 0 min 0 min 52 W/m 41,8 km/h (6 Bft) 97,83 %
08.10.2020 11:52 15,2 C 15,0 C 14,4 C 88 % 1013,4 hPa 0,0 l/m 0 min 0 min 49 W/m 19,3 km/h (3 Bft) 95,74 %
08.10.2020 11:54 15,2 C 15,0 C 14,4 C 88 % 1013,4 hPa 0,0 l/m 0 min 0 min 49 W/m 25,7 km/h (4 Bft) 97,87 %
08.10.2020 11:56 15,2 C 15,0 C 14,4 C 88 % 1013,5 hPa 0,0 l/m 0 min 0 min 51 W/m 32,2 km/h (5 Bft) 97,87 %
08.10.2020 11:58 15,2 C 15,0 C 14,4 C 88 % 1013,4 hPa 0,0 l/m 0 min 0 min 57 W/m 41,8 km/h (6 Bft) 97,87 %
08.10.2020 12:00 15,2 C 15,0 C 14,4 C 87 % 1013,5 hPa 0,0 l/m 0 min 0 min 53 W/m 45,1 km/h (6 Bft) 95,74 %
08.10.2020 12:02 15,3 C 15,0 C 14,4 C 87 % 1013,5 hPa 0,0 l/m 0 min 0 min 54 W/m 38,6 km/h (5 Bft) 97,83 %
08.10.2020 12:04 15,3 C 15,0 C 14,4 C 87 % 1013,5 hPa 0,0 l/m 0 min 0 min 57 W/m 32,2 km/h (5 Bft) 98,00 %
08.10.2020 12:08 15,3 C 15,0 C 14,4 C 87 % 1013,4 hPa 0,0 l/m 0 min 0 min 65 W/m 35,4 km/h (5 Bft) 97,87 %
08.10.2020 12:10 15,3 C 15,0 C 14,4 C 87 % 1013,4 hPa 0,0 l/m 0 min 0 min 57 W/m 29,0 km/h (5 Bft) 95,65 %
08.10.2020 12:12 15,3 C 15,0 C 14,4 C 87 % 1013,4 hPa 0,0 l/m 0 min 0 min 52 W/m 25,7 km/h (4 Bft) 97,87 %
08.10.2020 12:14 15,3 C 15,0 C 14,4 C 87 % 1013,4 hPa 0,0 l/m 0 min 0 min 60 W/m 22,5 km/h (4 Bft) 97,87 %
08.10.2020 12:16 15,3 C 15,0 C 14,4 C 87 % 1013,4 hPa 0,0 l/m 0 min 0 min 65 W/m 32,2 km/h (5 Bft) 95,74 %
08.10.2020 12:18 15,4 C 15,0 C 14,4 C 87 % 1013,5 hPa 0,0 l/m 0 min 0 min 66 W/m 32,2 km/h (5 Bft) 100,00 %
08.10.2020 12:20 15,4 C 15,0 C 14,4 C 87 % 1013,5 hPa 0,0 l/m 0 min 0 min 66 W/m 29,0 km/h (5 Bft) 95,74 %
08.10.2020 12:22 15,4 C 15,0 C 14,4 C 87 % 1013,5 hPa 0,0 l/m 0 min 0 min 66 W/m 35,4 km/h (5 Bft) 100,00 %
08.10.2020 12:24 15,4 C 15,0 C 14,4 C 87 % 1013,4 hPa 0,0 l/m 0 min 0 min 70 W/m 35,4 km/h (5 Bft) 100,00 %
08.10.2020 12:26 15,4 C 15,0 C 14,4 C 87 % 1013,4 hPa 0,0 l/m 0 min 0 min 78 W/m 32,2 km/h (5 Bft) 100,00 %
08.10.2020 12:28 15,4 C 15,0 C 14,4 C 87 % 1013,4 hPa 0,0 l/m 0 min 0 min 83 W/m 22,5 km/h (4 Bft) 97,87 %
08.10.2020 12:30 15,4 C 15,0 C 13,9 C 87 % 1013,3 hPa 0,0 l/m 0 min 0 min 78 W/m 22,5 km/h (4 Bft) 95,74 %
08.10.2020 12:32 15,4 C 15,0 C 14,4 C 87 % 1013,3 hPa 0,0 l/m 0 min 0 min 89 W/m 54,7 km/h (7 Bft) 95,83 %
08.10.2020 12:34 15,4 C 15,0 C 14,4 C 87 % 1013,3 hPa 0,0 l/m 0 min 0 min 81 W/m 35,4 km/h (5 Bft) 97,83 %
08.10.2020 12:36 15,4 C 15,0 C 14,4 C 87 % 1013,4 hPa 0,0 l/m 0 min 0 min 78 W/m 32,2 km/h (5 Bft) 97,87 %
08.10.2020 12:38 15,4 C 15,0 C 14,4 C 87 % 1013,3 hPa 0,0 l/m 0 min 0 min 89 W/m 32,2 km/h (5 Bft) 97,87 %
08.10.2020 12:40 15,5 C 15,0 C 14,4 C 87 % 1013,3 hPa 0,0 l/m 0 min 0 min 84 W/m 19,3 km/h (3 Bft) 97,87 %
08.10.2020 12:42 15,5 C 15,0 C 14,4 C 87 % 1013,3 hPa 0,0 l/m 0 min 0 min 67 W/m 41,8 km/h (6 Bft) 97,87 %
08.10.2020 12:44 15,5 C 15,0 C 14,4 C 87 % 1013,2 hPa 0,0 l/m 0 min 0 min 69 W/m 22,5 km/h (4 Bft) 97,87 %
08.10.2020 12:46 15,5 C 15,0 C 14,4 C 87 % 1013,3 hPa 0,0 l/m 0 min 0 min 75 W/m 41,8 km/h (6 Bft) 97,83 %
08.10.2020 12:48 15,6 C 15,0 C 14,4 C 87 % 1013,2 hPa 0,0 l/m 0 min 0 min 90 W/m 32,2 km/h (5 Bft) 97,87 %
08.10.2020 12:50 15,6 C 15,0 C 14,4 C 87 % 1013,2 hPa 0,0 l/m 0 min 0 min 96 W/m 25,7 km/h (4 Bft) 97,87 %
08.10.2020 12:52 15,6 C 15,6 C 14,4 C 87 % 1013,3 hPa 0,0 l/m 0 min 0 min 120 W/m 32,2 km/h (5 Bft) 97,87 %
08.10.2020 12:54 15,6 C 15,6 C 15,0 C 87 % 1013,3 hPa 0,0 l/m 0 min 0 min 132 W/m 19,3 km/h (3 Bft) 97,87 %
08.10.2020 12:56 15,6 C 15,6 C 14,4 C 87 % 1013,2 hPa 0,0 l/m 0 min 0 min 106 W/m 32,2 km/h (5 Bft) 97,83 %
08.10.2020 12:58 15,6 C 15,6 C 14,4 C 87 % 1013,1 hPa 0,0 l/m 0 min 0 min 126 W/m 29,0 km/h (5 Bft) 97,87 %
08.10.2020 13:00 15,7 C 15,6 C 14,4 C 87 % 1013,1 hPa 0,0 l/m 0 min 0 min 153 W/m 29,0 km/h (5 Bft) 97,87 %
08.10.2020 13:02 15,7 C 15,6 C 15,0 C 87 % 1013,1 hPa 0,0 l/m 0 min 0 min 137 W/m 22,5 km/h (4 Bft) 97,92 %
08.10.2020 13:04 15,7 C 16,1 C 15,0 C 87 % 1013,1 hPa 0,0 l/m 0 min 0 min 160 W/m 45,1 km/h (6 Bft) 100,00 %
08.10.2020 13:06 15,8 C 16,1 C 15,0 C 87 % 1013,1 hPa 0,0 l/m 0 min 0 min 168 W/m 29,0 km/h (5 Bft) 97,87 %
08.10.2020 13:08 15,8 C 16,1 C 15,0 C 87 % 1013,1 hPa 0,0 l/m 0 min 0 min 180 W/m 25,7 km/h (4 Bft) 97,83 %
08.10.2020 13:10 15,8 C 16,7 C 15,0 C 87 % 1013,0 hPa 0,0 l/m 2 min 0 min 270 W/m 38,6 km/h (5 Bft) 97,87 %
08.10.2020 13:12 15,9 C 17,2 C 15,0 C 87 % 1012,9 hPa 0,0 l/m 2 min 0 min 275 W/m 32,2 km/h (5 Bft) 97,87 %
08.10.2020 13:14 16,0 C 18,3 C 15,0 C 87 % 1012,9 hPa 0,0 l/m 2 min 0 min 369 W/m 35,4 km/h (5 Bft) 100,00 %
08.10.2020 13:16 16,1 C 18,3 C 15,6 C 87 % 1012,9 hPa 0,0 l/m 2 min 0 min 552 W/m 25,7 km/h (4 Bft) 100,00 %
08.10.2020 13:18 16,2 C 17,8 C 15,6 C 87 % 1012,9 hPa 0,0 l/m 2 min 0 min 369 W/m 25,7 km/h (4 Bft) 100,00 %
08.10.2020 13:20 16,2 C 17,2 C 15,6 C 87 % 1013,0 hPa 0,0 l/m 0 min 0 min 194 W/m 29,0 km/h (5 Bft) 100,00 %
08.10.2020 13:22 16,3 C 16,7 C 15,6 C 87 % 1012,9 hPa 0,0 l/m 0 min 0 min 196 W/m 29,0 km/h (5 Bft) 100,00 %
08.10.2020 13:24 16,3 C 16,7 C 15,6 C 86 % 1012,9 hPa 0,0 l/m 0 min 0 min 179 W/m 25,7 km/h (4 Bft) 97,83 %
08.10.2020 13:26 16,4 C 16,7 C 15,6 C 86 % 1013,0 hPa 0,0 l/m 0 min 0 min 209 W/m 29,0 km/h (5 Bft) 97,87 %
08.10.2020 13:28 16,4 C 16,7 C 15,6 C 86 % 1012,9 hPa 0,0 l/m 0 min 0 min 186 W/m 29,0 km/h (5 Bft) 100,00 %
08.10.2020 13:30 16,4 C 16,7 C 15,6 C 86 % 1012,9 hPa 0,0 l/m 0 min 0 min 161 W/m 32,2 km/h (5 Bft) 100,00 %
08.10.2020 13:32 16,5 C 16,7 C 15,6 C 86 % 1013,0 hPa 0,0 l/m 0 min 0 min 201 W/m 32,2 km/h (5 Bft) 100,00 %
08.10.2020 13:34 16,5 C 16,7 C 15,6 C 86 % 1012,9 hPa 0,0 l/m 0 min 0 min 155 W/m 32,2 km/h (5 Bft) 95,65 %
08.10.2020 13:36 16,6 C 16,1 C 15,0 C 86 % 1012,9 hPa 0,0 l/m 0 min 0 min 121 W/m 22,5 km/h (4 Bft) 100,00 %
08.10.2020 13:38 16,5 C 16,1 C 15,6 C 86 % 1012,9 hPa 0,0 l/m 0 min 0 min 166 W/m 29,0 km/h (5 Bft) 100,00 %
08.10.2020 13:40 16,6 C 16,1 C 15,6 C 86 % 1012,9 hPa 0,0 l/m 0 min 0 min 133 W/m 25,7 km/h (4 Bft) 97,87 %
08.10.2020 13:42 16,6 C 16,1 C 15,6 C 86 % 1012,9 hPa 0,0 l/m 0 min 0 min 109 W/m 19,3 km/h (3 Bft) 100,00 %
08.10.2020 13:44 16,6 C 16,1 C 15,0 C 86 % 1013,0 hPa 0,0 l/m 0 min 0 min 92 W/m 54,7 km/h (7 Bft) 97,92 %
08.10.2020 13:46 16,6 C 16,1 C 15,0 C 85 % 1013,0 hPa 0,0 l/m 0 min 0 min 84 W/m 41,8 km/h (6 Bft) 100,00 %
08.10.2020 13:48 16,6 C 16,1 C 15,0 C 85 % 1012,9 hPa 0,0 l/m 0 min 0 min 101 W/m 32,2 km/h (5 Bft) 100,00 %
08.10.2020 13:50 16,5 C 16,1 C 15,0 C 85 % 1013,0 hPa 0,0 l/m 0 min 0 min 113 W/m 35,4 km/h (5 Bft) 100,00 %
08.10.2020 13:52 16,5 C 16,1 C 15,0 C 85 % 1013,0 hPa 0,0 l/m 0 min 0 min 117 W/m 35,4 km/h (5 Bft) 95,74 %
08.10.2020 13:54 16,6 C 16,1 C 15,0 C 85 % 1012,9 hPa 0,0 l/m 0 min 0 min 91 W/m 29,0 km/h (5 Bft) 97,83 %
08.10.2020 13:56 16,5 C 16,1 C 15,0 C 85 % 1012,9 hPa 0,0 l/m 0 min 0 min 114 W/m 38,6 km/h (5 Bft) 97,87 %
08.10.2020 13:58 16,5 C 16,1 C 15,0 C 85 % 1012,8 hPa 0,0 l/m 0 min 0 min 152 W/m 25,7 km/h (4 Bft) 93,62 %
08.10.2020 14:00 16,6 C 16,7 C 15,0 C 85 % 1012,7 hPa 0,0 l/m 0 min 0 min 175 W/m 32,2 km/h (5 Bft) 97,87 %
08.10.2020 14:02 16,6 C 16,7 C 15,6 C 85 % 1012,7 hPa 0,0 l/m 0 min 0 min 178 W/m 29,0 km/h (5 Bft) 95,74 %
08.10.2020 14:04 16,6 C 17,2 C 15,6 C 85 % 1012,7 hPa 0,0 l/m 0 min 0 min 239 W/m 35,4 km/h (5 Bft) 97,87 %
08.10.2020 14:06 16,6 C 17,2 C 15,6 C 85 % 1012,6 hPa 0,0 l/m 2 min 0 min 304 W/m 32,2 km/h (5 Bft) 91,30 %
08.10.2020 14:08 16,6 C 17,8 C 15,6 C 85 % 1012,6 hPa 0,0 l/m 0 min 0 min 241 W/m 22,5 km/h (4 Bft) 95,74 %
08.10.2020 14:10 16,7 C 18,3 C 15,6 C 85 % 1012,5 hPa 0,0 l/m 0 min 0 min 253 W/m 35,4 km/h (5 Bft) 95,74 %
08.10.2020 14:12 16,8 C 19,4 C 16,1 C 85 % 1012,7 hPa 0,0 l/m 2 min 0 min 607 W/m 29,0 km/h (5 Bft) 95,74 %
08.10.2020 14:14 16,8 C 18,9 C 16,1 C 85 % 1012,6 hPa 0,0 l/m 2 min 0 min 481 W/m 29,0 km/h (5 Bft) 95,74 %
08.10.2020 14:16 16,9 C 18,3 C 16,1 C 85 % 1012,8 hPa 0,0 l/m 2 min 0 min 289 W/m 35,4 km/h (5 Bft) 91,49 %
08.10.2020 14:18 17,0 C 17,8 C 16,1 C 85 % 1012,8 hPa 0,0 l/m 0 min 0 min 209 W/m 41,8 km/h (6 Bft) 95,65 %
08.10.2020 14:20 17,1 C 17,2 C 16,1 C 84 % 1012,8 hPa 0,0 l/m 0 min 0 min 184 W/m 45,1 km/h (6 Bft) 95,74 %
08.10.2020 14:22 17,1 C 17,2 C 16,1 C 84 % 1012,8 hPa 0,0 l/m 0 min 0 min 218 W/m 29,0 km/h (5 Bft) 95,12 %
08.10.2020 14:24 17,1 C 18,9 C 16,1 C 84 % 1012,7 hPa 0,0 l/m 2 min 0 min 312 W/m 29,0 km/h (5 Bft) 95,83 %
08.10.2020 14:26 17,2 C 18,9 C 16,1 C 84 % 1012,8 hPa 0,0 l/m 2 min 0 min 318 W/m 32,2 km/h (5 Bft) 93,75 %
08.10.2020 14:28 17,2 C 18,3 C 16,1 C 83 % 1012,8 hPa 0,0 l/m 2 min 0 min 326 W/m 35,4 km/h (5 Bft) 95,83 %
08.10.2020 14:30 17,3 C 17,8 C 16,7 C 84 % 1012,8 hPa 0,0 l/m 2 min 0 min 282 W/m 25,7 km/h (4 Bft) 95,74 %
08.10.2020 14:32 17,3 C 17,8 C 16,1 C 83 % 1012,7 hPa 0,0 l/m 0 min 0 min 160 W/m 32,2 km/h (5 Bft) 95,74 %
08.10.2020 14:34 17,4 C 17,2 C 16,1 C 83 % 1012,7 hPa 0,0 l/m 0 min 0 min 134 W/m 48,3 km/h (6 Bft) 95,65 %
08.10.2020 14:36 17,3 C 16,7 C 16,1 C 83 % 1012,7 hPa 0,0 l/m 0 min 0 min 93 W/m 22,5 km/h (4 Bft) 91,49 %
08.10.2020 14:38 17,3 C 16,7 C 15,6 C 83 % 1012,7 hPa 0,0 l/m 0 min 0 min 68 W/m 25,7 km/h (4 Bft) 95,74 %
08.10.2020 14:40 17,3 C 16,7 C 15,6 C 83 % 1012,7 hPa 0,0 l/m 0 min 0 min 64 W/m 32,2 km/h (5 Bft) 95,74 %
08.10.2020 14:42 17,3 C 16,7 C 15,6 C 83 % 1012,6 hPa 0,0 l/m 0 min 0 min 57 W/m 29,0 km/h (5 Bft) 95,74 %
08.10.2020 14:44 17,3 C 16,7 C 15,6 C 83 % 1012,7 hPa 0,0 l/m 0 min 0 min 86 W/m 32,2 km/h (5 Bft) 95,74 %
08.10.2020 14:46 17,2 C 16,7 C 15,6 C 83 % 1012,6 hPa 0,0 l/m 0 min 0 min 89 W/m 25,7 km/h (4 Bft) 95,74 %
08.10.2020 14:48 17,2 C 16,7 C 15,6 C 83 % 1012,7 hPa 0,0 l/m 0 min 0 min 58 W/m 48,3 km/h (6 Bft) 100,00 %
08.10.2020 14:50 17,2 C 16,1 C 15,6 C 83 % 1012,7 hPa 0,0 l/m 0 min 0 min 62 W/m 45,1 km/h (6 Bft) 97,87 %
08.10.2020 14:52 17,2 C 16,1 C 15,6 C 83 % 1012,7 hPa 0,0 l/m 0 min 0 min 63 W/m 29,0 km/h (5 Bft) 97,92 %
08.10.2020 14:54 17,1 C 16,1 C 15,6 C 83 % 1012,7 hPa 0,0 l/m 0 min 0 min 60 W/m 35,4 km/h (5 Bft) 100,00 %
08.10.2020 14:56 17,1 C 16,1 C 15,6 C 83 % 1012,6 hPa 0,0 l/m 0 min 0 min 62 W/m 22,5 km/h (4 Bft) 100,00 %
08.10.2020 14:58 17,1 C 16,1 C 15,6 C 83 % 1012,6 hPa 0,0 l/m 0 min 0 min 60 W/m 35,4 km/h (5 Bft) 100,00 %
08.10.2020 15:00 17,1 C 16,7 C 15,6 C 83 % 1012,6 hPa 0,0 l/m 0 min 0 min 84 W/m 19,3 km/h (3 Bft) 100,00 %
08.10.2020 15:02 17,1 C 16,7 C 15,6 C 84 % 1012,6 hPa 0,0 l/m 0 min 0 min 92 W/m 38,6 km/h (5 Bft) 97,87 %
08.10.2020 15:04 17,0 C 16,7 C 15,6 C 84 % 1012,7 hPa 0,0 l/m 0 min 0 min 84 W/m 48,3 km/h (6 Bft) 95,24 %
08.10.2020 15:06 17,0 C 16,1 C 15,6 C 84 % 1012,6 hPa 0,0 l/m 0 min 0 min 81 W/m 41,8 km/h (6 Bft) 95,83 %
08.10.2020 15:08 17,0 C 16,1 C 15,6 C 84 % 1012,5 hPa 0,0 l/m 0 min 0 min 76 W/m 35,4 km/h (5 Bft) 97,83 %
08.10.2020 15:10 17,0 C 16,1 C 15,6 C 84 % 1012,5 hPa 0,0 l/m 0 min 0 min 80 W/m 29,0 km/h (5 Bft) 97,87 %
08.10.2020 15:12 17,0 C 16,7 C 15,6 C 84 % 1012,5 hPa 0,0 l/m 0 min 0 min 82 W/m 29,0 km/h (5 Bft) 97,92 %
08.10.2020 15:14 16,9 C 16,7 C 15,6 C 84 % 1012,5 hPa 0,0 l/m 0 min 0 min 93 W/m 25,7 km/h (4 Bft) 95,83 %
08.10.2020 15:16 16,9 C 16,7 C 15,6 C 84 % 1012,5 hPa 0,0 l/m 0 min 0 min 109 W/m 29,0 km/h (5 Bft) 97,92 %
08.10.2020 15:18 16,9 C 16,7 C 15,6 C 84 % 1012,4 hPa 0,0 l/m 0 min 0 min 100 W/m 29,0 km/h (5 Bft) 97,83 %
08.10.2020 15:20 16,9 C 16,7 C 15,6 C 84 % 1012,4 hPa 0,0 l/m 0 min 0 min 84 W/m 29,0 km/h (5 Bft) 97,87 %
08.10.2020 15:22 17,0 C 16,7 C 15,6 C 84 % 1012,5 hPa 0,0 l/m 0 min 0 min 83 W/m 32,2 km/h (5 Bft) 97,87 %
08.10.2020 15:24 16,9 C 16,7 C 15,6 C 84 % 1012,4 hPa 0,0 l/m 0 min 0 min 89 W/m 32,2 km/h (5 Bft) 95,74 %
08.10.2020 15:26 17,0 C 16,7 C 15,6 C 84 % 1012,4 hPa 0,0 l/m 0 min 0 min 86 W/m 19,3 km/h (3 Bft) 97,87 %
08.10.2020 15:28 17,0 C 16,7 C 15,6 C 85 % 1012,5 hPa 0,0 l/m 0 min 0 min 76 W/m 22,5 km/h (4 Bft) 97,87 %
08.10.2020 15:30 17,0 C 16,7 C 15,6 C 85 % 1012,5 hPa 0,0 l/m 0 min 0 min 68 W/m 22,5 km/h (4 Bft) 97,83 %
08.10.2020 15:32 16,9 C 16,7 C 15,6 C 85 % 1012,5 hPa 0,0 l/m 0 min 0 min 83 W/m 29,0 km/h (5 Bft) 97,87 %
08.10.2020 15:34 17,0 C 16,7 C 15,6 C 85 % 1012,5 hPa 0,0 l/m 0 min 0 min 86 W/m 29,0 km/h (5 Bft) 97,87 %
08.10.2020 15:36 17,0 C 16,7 C 15,6 C 85 % 1012,4 hPa 0,0 l/m 0 min 0 min 100 W/m 35,4 km/h (5 Bft) 97,87 %
08.10.2020 15:38 17,0 C 16,7 C 15,6 C 85 % 1012,4 hPa 0,0 l/m 0 min 0 min 94 W/m 22,5 km/h (4 Bft) 97,87 %
08.10.2020 15:40 17,0 C 16,7 C 15,6 C 85 % 1012,4 hPa 0,0 l/m 0 min 0 min 76 W/m 38,6 km/h (5 Bft) 97,87 %
08.10.2020 15:42 17,0 C 16,7 C 15,6 C 85 % 1012,4 hPa 0,0 l/m 0 min 0 min 90 W/m 45,1 km/h (6 Bft) 97,87 %
08.10.2020 15:44 17,1 C 16,7 C 15,6 C 85 % 1012,4 hPa 0,0 l/m 0 min 0 min 85 W/m 29,0 km/h (5 Bft) 93,62 %
08.10.2020 15:46 17,1 C 16,7 C 15,6 C 85 % 1012,4 hPa 0,0 l/m 0 min 0 min 77 W/m 35,4 km/h (5 Bft) 97,87 %
08.10.2020 15:48 17,1 C 16,7 C 15,6 C 85 % 1012,3 hPa 0,0 l/m 0 min 0 min 74 W/m 41,8 km/h (6 Bft) 97,87 %
08.10.2020 15:50 17,1 C 16,7 C 15,6 C 85 % 1012,4 hPa 0,0 l/m 0 min 0 min 85 W/m 38,6 km/h (5 Bft) 97,87 %
08.10.2020 15:52 17,1 C 16,7 C 15,6 C 85 % 1012,4 hPa 0,0 l/m 0 min 0 min 110 W/m 32,2 km/h (5 Bft) 100,00 %
08.10.2020 15:54 17,1 C 16,7 C 16,1 C 85 % 1012,3 hPa 0,0 l/m 0 min 0 min 132 W/m 25,7 km/h (4 Bft) 97,87 %
08.10.2020 15:56 17,1 C 17,2 C 16,1 C 85 % 1012,3 hPa 0,0 l/m 0 min 0 min 177 W/m 41,8 km/h (6 Bft) 97,87 %
08.10.2020 15:58 17,2 C 17,2 C 16,1 C 85 % 1012,3 hPa 0,0 l/m 0 min 0 min 175 W/m 25,7 km/h (4 Bft) 100,00 %
08.10.2020 16:00 17,2 C 17,2 C 16,1 C 85 % 1012,2 hPa 0,0 l/m 0 min 0 min 186 W/m 25,7 km/h (4 Bft) 100,00 %
08.10.2020 16:02 17,3 C 17,8 C 16,1 C 85 % 1012,3 hPa 0,0 l/m 0 min 0 min 168 W/m 29,0 km/h (5 Bft) 100,00 %
08.10.2020 16:04 17,3 C 17,2 C 16,1 C 84 % 1012,3 hPa 0,0 l/m 0 min 0 min 139 W/m 45,1 km/h (6 Bft) 95,74 %
08.10.2020 16:06 17,3 C 17,2 C 16,1 C 84 % 1012,4 hPa 0,0 l/m 0 min 0 min 123 W/m 29,0 km/h (5 Bft) 100,00 %
08.10.2020 16:08 17,4 C 17,2 C 16,1 C 84 % 1012,3 hPa 0,0 l/m 0 min 0 min 135 W/m 29,0 km/h (5 Bft) 100,00 %
08.10.2020 16:10 17,4 C 17,2 C 16,1 C 84 % 1012,4 hPa 0,0 l/m 0 min 0 min 98 W/m 29,0 km/h (5 Bft) 100,00 %
08.10.2020 16:12 17,4 C 17,2 C 16,1 C 84 % 1012,3 hPa 0,0 l/m 0 min 0 min 98 W/m 22,5 km/h (4 Bft) 100,00 %
08.10.2020 16:14 17,5 C 17,2 C 16,1 C 84 % 1012,3 hPa 0,0 l/m 0 min 0 min 92 W/m 45,1 km/h (6 Bft) 97,83 %
08.10.2020 16:16 17,5 C 17,2 C 16,1 C 84 % 1012,3 hPa 0,0 l/m 0 min 0 min 91 W/m 61,2 km/h (7 Bft) 100,00 %
08.10.2020 16:18 17,5 C 17,2 C 16,1 C 84 % 1012,3 hPa 0,0 l/m 0 min 0 min 81 W/m 29,0 km/h (5 Bft) 100,00 %
08.10.2020 16:20 17,5 C 17,2 C 16,1 C 84 % 1012,3 hPa 0,0 l/m 0 min 0 min 77 W/m 29,0 km/h (5 Bft) 100,00 %
08.10.2020 16:22 17,5 C 16,7 C 16,1 C 84 % 1012,3 hPa 0,0 l/m 0 min 0 min 65 W/m 38,6 km/h (5 Bft) 100,00 %
08.10.2020 16:24 17,6 C 16,7 C 16,1 C 83 % 1012,2 hPa 0,0 l/m 0 min 0 min 53 W/m 29,0 km/h (5 Bft) 100,00 %
08.10.2020 16:26 17,6 C 16,7 C 16,1 C 83 % 1012,3 hPa 0,0 l/m 0 min 0 min 67 W/m 51,5 km/h (7 Bft) 97,83 %
08.10.2020 16:28 17,6 C 16,7 C 16,1 C 83 % 1012,1 hPa 0,0 l/m 0 min 0 min 69 W/m 22,5 km/h (4 Bft) 100,00 %
08.10.2020 16:30 17,6 C 16,1 C 16,1 C 83 % 1012,1 hPa 0,0 l/m 0 min 2 min 68 W/m 35,4 km/h (5 Bft) 97,87 %
08.10.2020 16:32 17,6 C 16,7 C 16,1 C 84 % 1012,2 hPa 0,0 l/m 0 min 0 min 73 W/m 32,2 km/h (5 Bft) 100,00 %
08.10.2020 16:34 17,6 C 16,7 C 15,6 C 84 % 1012,1 hPa 0,0 l/m 0 min 0 min 72 W/m 16,1 km/h (3 Bft) 100,00 %
08.10.2020 16:36 17,5 C 16,7 C 15,6 C 84 % 1012,1 hPa 0,0 l/m 0 min 0 min 82 W/m 32,2 km/h (5 Bft) 97,87 %
08.10.2020 16:38 17,5 C 16,7 C 15,6 C 84 % 1012,1 hPa 0,0 l/m 0 min 0 min 59 W/m 29,0 km/h (5 Bft) 97,83 %
08.10.2020 16:40 17,5 C 16,7 C 16,1 C 84 % 1012,0 hPa 0,0 l/m 0 min 0 min 38 W/m 48,3 km/h (6 Bft) 97,87 %
08.10.2020 16:42 17,5 C 16,7 C 16,1 C 83 % 1012,2 hPa 0,0 l/m 0 min 0 min 34 W/m 32,2 km/h (5 Bft) 97,87 %
08.10.2020 16:44 17,5 C 16,7 C 16,1 C 83 % 1012,1 hPa 0,0 l/m 0 min 0 min 31 W/m 41,8 km/h (6 Bft) 97,87 %
08.10.2020 16:46 17,5 C 16,7 C 15,6 C 84 % 1012,1 hPa 0,0 l/m 0 min 0 min 35 W/m 29,0 km/h (5 Bft) 95,74 %
08.10.2020 16:48 17,4 C 16,1 C 15,6 C 84 % 1012,2 hPa 0,0 l/m 0 min 2 min 57 W/m 48,3 km/h (6 Bft) 93,62 %
08.10.2020 16:50 17,4 C 15,0 C 15,0 C 84 % 1012,1 hPa 0,0 l/m 0 min 2 min 54 W/m 38,6 km/h (5 Bft) 97,83 %
08.10.2020 16:52 17,4 C 15,0 C 15,0 C 85 % 1012,2 hPa 0,2 l/m 0 min 2 min 42 W/m 35,4 km/h (5 Bft) 93,62 %
08.10.2020 16:54 17,4 C 14,4 C 15,0 C 85 % 1012,2 hPa 0,0 l/m 0 min 2 min 45 W/m 19,3 km/h (3 Bft) 97,87 %
08.10.2020 16:56 17,3 C 13,9 C 14,4 C 86 % 1012,2 hPa 0,0 l/m 0 min 2 min 52 W/m 32,2 km/h (5 Bft) 97,87 %
08.10.2020 16:58 17,2 C 13,9 C 13,9 C 87 % 1012,2 hPa 0,0 l/m 0 min 2 min 52 W/m 45,1 km/h (6 Bft) 95,74 %
08.10.2020 17:00 17,1 C 13,9 C 13,9 C 87 % 1012,2 hPa 0,2 l/m 0 min 2 min 55 W/m 29,0 km/h (5 Bft) 97,87 %
08.10.2020 17:02 17,1 C 13,9 C 13,9 C 88 % 1012,3 hPa 0,0 l/m 0 min 2 min 56 W/m 19,3 km/h (3 Bft) 95,65 %
08.10.2020 17:04 16,9 C 13,9 C 13,9 C 88 % 1012,2 hPa 0,0 l/m 0 min 2 min 54 W/m 19,3 km/h (3 Bft) 97,87 %
08.10.2020 17:06 16,9 C 13,9 C 13,9 C 89 % 1012,3 hPa 0,2 l/m 0 min 2 min 49 W/m 22,5 km/h (4 Bft) 97,87 %
08.10.2020 17:08 16,8 C 13,9 C 13,9 C 89 % 1012,3 hPa 0,0 l/m 0 min 2 min 56 W/m 29,0 km/h (5 Bft) 93,62 %
08.10.2020 17:10 16,7 C 13,9 C 13,9 C 90 % 1012,2 hPa 0,0 l/m 0 min 2 min 52 W/m 25,7 km/h (4 Bft) 91,49 %
08.10.2020 17:12 16,6 C 13,9 C 13,9 C 90 % 1012,3 hPa 0,0 l/m 0 min 2 min 49 W/m 19,3 km/h (3 Bft) 95,65 %
08.10.2020 17:14 16,4 C 13,9 C 13,9 C 90 % 1012,3 hPa 0,0 l/m 0 min 2 min 45 W/m 29,0 km/h (5 Bft) 95,74 %
08.10.2020 17:16 16,3 C 13,9 C 13,9 C 91 % 1012,3 hPa 0,0 l/m 0 min 0 min 52 W/m 22,5 km/h (4 Bft) 93,62 %
08.10.2020 17:18 16,3 C 13,9 C 13,9 C 91 % 1012,3 hPa 0,0 l/m 0 min 0 min 50 W/m 22,5 km/h (4 Bft) 95,74 %
08.10.2020 17:20 16,2 C 13,9 C 13,9 C 92 % 1012,5 hPa 0,0 l/m 0 min 0 min 38 W/m 32,2 km/h (5 Bft) 95,74 %
08.10.2020 17:22 16,1 C 13,9 C 13,9 C 92 % 1012,3 hPa 0,0 l/m 0 min 0 min 34 W/m 35,4 km/h (5 Bft) 95,74 %
08.10.2020 17:24 16,0 C 13,9 C 13,9 C 92 % 1012,2 hPa 0,0 l/m 0 min 0 min 47 W/m 22,5 km/h (4 Bft) 95,74 %
08.10.2020 17:26 15,9 C 13,9 C 13,9 C 92 % 1012,2 hPa 0,0 l/m 0 min 0 min 52 W/m 22,5 km/h (4 Bft) 95,65 %
08.10.2020 17:28 15,9 C 13,9 C 13,9 C 93 % 1012,2 hPa 0,0 l/m 0 min 0 min 40 W/m 25,7 km/h (4 Bft) 97,87 %
08.10.2020 17:30 15,8 C 13,9 C 13,9 C 93 % 1012,2 hPa 0,0 l/m 0 min 0 min 29 W/m 29,0 km/h (5 Bft) 95,74 %
08.10.2020 17:32 15,8 C 13,9 C 13,9 C 93 % 1012,3 hPa 0,0 l/m 0 min 0 min 26 W/m 41,8 km/h (6 Bft) 95,74 %
08.10.2020 17:34 15,8 C 13,9 C 13,9 C 93 % 1012,3 hPa 0,0 l/m 0 min 0 min 28 W/m 35,4 km/h (5 Bft) 95,74 %
08.10.2020 17:36 15,7 C 13,9 C 13,9 C 94 % 1012,3 hPa 0,0 l/m 0 min 0 min 26 W/m 41,8 km/h (6 Bft) 97,83 %
08.10.2020 17:38 15,7 C 13,9 C 13,9 C 94 % 1012,2 hPa 0,0 l/m 0 min 0 min 30 W/m 38,6 km/h (5 Bft) 97,87 %
08.10.2020 17:40 15,6 C 13,9 C 13,9 C 94 % 1012,2 hPa 0,0 l/m 0 min 0 min 37 W/m 29,0 km/h (5 Bft) 97,87 %
08.10.2020 17:42 15,6 C 13,9 C 13,9 C 94 % 1012,2 hPa 0,0 l/m 0 min 0 min 34 W/m 29,0 km/h (5 Bft) 93,62 %
08.10.2020 17:44 15,6 C 13,9 C 13,9 C 94 % 1012,2 hPa 0,0 l/m 0 min 0 min 28 W/m 25,7 km/h (4 Bft) 100,00 %
08.10.2020 17:46 15,6 C 13,9 C 13,9 C 95 % 1012,2 hPa 0,2 l/m 0 min 0 min 25 W/m 45,1 km/h (6 Bft) 91,67 %
08.10.2020 17:48 15,6 C 13,9 C 13,9 C 95 % 1012,3 hPa 0,0 l/m 0 min 0 min 27 W/m 38,6 km/h (5 Bft) 97,92 %
08.10.2020 17:50 15,5 C 13,9 C 13,9 C 95 % 1012,2 hPa 0,0 l/m 0 min 0 min 31 W/m 29,0 km/h (5 Bft) 97,87 %
08.10.2020 17:52 15,5 C 13,9 C 13,9 C 95 % 1012,2 hPa 0,0 l/m 0 min 0 min 29 W/m 32,2 km/h (5 Bft) 97,87 %
08.10.2020 17:54 15,5 C 13,9 C 13,9 C 95 % 1012,3 hPa 0,0 l/m 0 min 0 min 27 W/m 25,7 km/h (4 Bft) 97,87 %
08.10.2020 17:56 15,5 C 13,9 C 13,9 C 95 % 1012,2 hPa 0,0 l/m 0 min 0 min 23 W/m 25,7 km/h (4 Bft) 95,74 %
08.10.2020 17:58 15,5 C 13,9 C 13,9 C 95 % 1012,2 hPa 0,0 l/m 0 min 0 min 21 W/m 29,0 km/h (5 Bft) 95,74 %
08.10.2020 18:00 15,4 C 13,9 C 13,9 C 95 % 1012,2 hPa 0,0 l/m 0 min 0 min 20 W/m 22,5 km/h (4 Bft) 97,87 %
08.10.2020 18:02 15,4 C 13,9 C 13,9 C 95 % 1012,3 hPa 0,0 l/m 0 min 0 min 16 W/m 25,7 km/h (4 Bft) 95,65 %
08.10.2020 18:04 15,4 C 13,9 C 13,9 C 95 % 1012,3 hPa 0,0 l/m 0 min 0 min 16 W/m 25,7 km/h (4 Bft) 97,87 %
08.10.2020 18:08 15,4 C 13,9 C 13,9 C 96 % 1012,3 hPa 0,0 l/m 0 min 0 min 16 W/m 38,6 km/h (5 Bft) 96,81 %
08.10.2020 18:10 15,4 C 13,9 C 13,9 C 96 % 1012,3 hPa 0,0 l/m 0 min 0 min 14 W/m 32,2 km/h (5 Bft) 97,92 %
08.10.2020 18:12 15,4 C 13,9 C 13,9 C 96 % 1012,4 hPa 0,0 l/m 0 min 0 min 14 W/m 32,2 km/h (5 Bft) 95,83 %
08.10.2020 18:14 15,4 C 13,9 C 13,9 C 96 % 1012,4 hPa 0,0 l/m 0 min 0 min 13 W/m 41,8 km/h (6 Bft) 97,87 %
08.10.2020 18:16 15,4 C 13,9 C 13,9 C 96 % 1012,4 hPa 0,0 l/m 0 min 0 min 14 W/m 25,7 km/h (4 Bft) 95,74 %
08.10.2020 18:18 15,4 C 13,9 C 13,9 C 96 % 1012,4 hPa 0,0 l/m 0 min 0 min 15 W/m 19,3 km/h (3 Bft) 97,87 %
08.10.2020 18:20 15,4 C 13,9 C 13,9 C 96 % 1012,5 hPa 0,0 l/m 0 min 0 min 17 W/m 35,4 km/h (5 Bft) 97,87 %
08.10.2020 18:22 15,4 C 13,9 C 13,9 C 96 % 1012,5 hPa 0,0 l/m 0 min 0 min 16 W/m 38,6 km/h (5 Bft) 97,83 %
08.10.2020 18:24 15,4 C 13,9 C 13,9 C 96 % 1012,4 hPa 0,0 l/m 0 min 0 min 13 W/m 32,2 km/h (5 Bft) 97,87 %
08.10.2020 18:26 15,4 C 13,9 C 13,9 C 96 % 1012,5 hPa 0,0 l/m 0 min 0 min 10 W/m 22,5 km/h (4 Bft) 97,87 %
08.10.2020 18:28 15,4 C 13,9 C 13,9 C 96 % 1012,5 hPa 0,0 l/m 0 min 0 min 8 W/m 29,0 km/h (5 Bft) 97,87 %
08.10.2020 18:30 15,4 C 13,9 C 13,9 C 96 % 1012,5 hPa 0,0 l/m 0 min 0 min 7 W/m 32,2 km/h (5 Bft) 97,87 %
08.10.2020 18:32 15,4 C 13,9 C 13,9 C 96 % 1012,5 hPa 0,0 l/m 0 min 2 min 6 W/m 32,2 km/h (5 Bft) 97,87 %
08.10.2020 18:34 15,4 C 13,9 C 13,9 C 96 % 1012,5 hPa 0,0 l/m 0 min 2 min 5 W/m 29,0 km/h (5 Bft) 95,65 %
08.10.2020 18:36 15,4 C 13,9 C 13,9 C 96 % 1012,5 hPa 0,0 l/m 0 min 2 min 5 W/m 45,1 km/h (6 Bft) 95,74 %
08.10.2020 18:38 15,4 C 13,9 C 13,9 C 96 % 1012,5 hPa 0,0 l/m 0 min 2 min 5 W/m 25,7 km/h (4 Bft) 97,87 %
08.10.2020 18:40 15,4 C 13,9 C 13,9 C 96 % 1012,6 hPa 0,0 l/m 0 min 2 min 2 W/m 45,1 km/h (6 Bft) 95,74 %
08.10.2020 18:42 15,4 C 13,9 C 13,9 C 96 % 1012,5 hPa 0,0 l/m 0 min 2 min 0 W/m 25,7 km/h (4 Bft) 97,87 %
08.10.2020 18:44 15,4 C 13,9 C 13,3 C 96 % 1012,6 hPa 0,2 l/m 0 min 2 min 0 W/m 29,0 km/h (5 Bft) 95,74 %
08.10.2020 18:46 15,4 C 13,9 C 13,3 C 96 % 1012,6 hPa 0,0 l/m 0 min 2 min 0 W/m 29,0 km/h (5 Bft) 97,83 %
08.10.2020 18:48 15,4 C 13,9 C 13,3 C 96 % 1012,6 hPa 0,0 l/m 0 min 2 min 0 W/m 45,1 km/h (6 Bft) 97,92 %
08.10.2020 18:50 15,4 C 13,9 C 13,3 C 97 % 1012,6 hPa 0,0 l/m 0 min 0 min 0 W/m 35,4 km/h (5 Bft) 97,87 %
08.10.2020 18:52 15,3 C 13,9 C 13,3 C 96 % 1012,6 hPa 0,0 l/m 0 min 0 min 0 W/m 35,4 km/h (5 Bft) 95,74 %
08.10.2020 18:54 15,3 C 13,9 C 13,3 C 96 % 1012,6 hPa 0,0 l/m 0 min 0 min 0 W/m 25,7 km/h (4 Bft) 97,87 %
08.10.2020 18:56 15,3 C 13,9 C 13,3 C 96 % 1012,5 hPa 0,0 l/m 0 min 0 min 0 W/m 29,0 km/h (5 Bft) 100,00 %
08.10.2020 18:58 15,3 C 13,9 C 13,3 C 97 % 1012,6 hPa 0,0 l/m 0 min 0 min 0 W/m 22,5 km/h (4 Bft) 97,83 %
08.10.2020 19:00 15,3 C 13,9 C 13,3 C 97 % 1012,6 hPa 0,0 l/m 0 min 0 min 0 W/m 25,7 km/h (4 Bft) 97,87 %
08.10.2020 19:02 15,3 C 13,9 C 13,3 C 97 % 1012,6 hPa 0,0 l/m 0 min 0 min 0 W/m 22,5 km/h (4 Bft) 100,00 %
08.10.2020 19:04 15,3 C 13,9 C 13,3 C 97 % 1012,6 hPa 0,0 l/m 0 min 0 min 0 W/m 35,4 km/h (5 Bft) 100,00 %
08.10.2020 19:06 15,3 C 13,9 C 13,3 C 97 % 1012,6 hPa 0,0 l/m 0 min 0 min 0 W/m 29,0 km/h (5 Bft) 100,00 %
08.10.2020 19:08 15,3 C 13,9 C 13,3 C 97 % 1012,6 hPa 0,0 l/m 0 min 0 min 0 W/m 19,3 km/h (3 Bft) 100,00 %
08.10.2020 19:10 15,3 C 13,9 C 13,3 C 97 % 1012,5 hPa 0,0 l/m 0 min 0 min 0 W/m 51,5 km/h (7 Bft) 100,00 %
08.10.2020 19:12 15,3 C 14,4 C 13,3 C 97 % 1012,6 hPa 0,0 l/m 0 min 0 min 0 W/m 25,7 km/h (4 Bft) 100,00 %
08.10.2020 19:14 15,3 C 14,4 C 13,3 C 97 % 1012,6 hPa 0,0 l/m 0 min 0 min 0 W/m 25,7 km/h (4 Bft) 100,00 %
08.10.2020 19:16 15,3 C 14,4 C 13,3 C 97 % 1012,6 hPa 0,0 l/m 0 min 0 min 0 W/m 35,4 km/h (5 Bft) 100,00 %
08.10.2020 19:18 15,3 C 14,4 C 13,9 C 97 % 1012,6 hPa 0,0 l/m 0 min 0 min 0 W/m 25,7 km/h (4 Bft) 100,00 %
08.10.2020 19:20 15,3 C 14,4 C 13,9 C 97 % 1012,6 hPa 0,0 l/m 0 min 0 min 0 W/m 25,7 km/h (4 Bft) 100,00 %
08.10.2020 19:22 15,3 C 14,4 C 13,9 C 97 % 1012,6 hPa 0,0 l/m 0 min 0 min 0 W/m 29,0 km/h (5 Bft) 100,00 %
08.10.2020 19:24 15,3 C 14,4 C 13,9 C 97 % 1012,7 hPa 0,0 l/m 0 min 0 min 0 W/m 32,2 km/h (5 Bft) 100,00 %
08.10.2020 19:26 15,4 C 14,4 C 13,9 C 97 % 1012,7 hPa 0,0 l/m 0 min 0 min 0 W/m 32,2 km/h (5 Bft) 100,00 %
08.10.2020 19:28 15,4 C 14,4 C 13,9 C 97 % 1012,7 hPa 0,0 l/m 0 min 0 min 0 W/m 35,4 km/h (5 Bft) 97,87 %
08.10.2020 19:30 15,4 C 14,4 C 13,9 C 97 % 1012,8 hPa 0,0 l/m 0 min 0 min 0 W/m 25,7 km/h (4 Bft) 95,74 %
08.10.2020 19:32 15,4 C 14,4 C 13,9 C 97 % 1012,8 hPa 0,0 l/m 0 min 0 min 0 W/m 32,2 km/h (5 Bft) 97,87 %
08.10.2020 19:34 15,4 C 14,4 C 13,9 C 97 % 1012,8 hPa 0,0 l/m 0 min 0 min 0 W/m 25,7 km/h (4 Bft) 97,92 %
08.10.2020 19:36 15,5 C 14,4 C 13,9 C 97 % 1012,8 hPa 0,0 l/m 0 min 0 min 0 W/m 45,1 km/h (6 Bft) 97,87 %
08.10.2020 19:38 15,6 C 14,4 C 13,9 C 97 % 1012,8 hPa 0,0 l/m 0 min 0 min 0 W/m 32,2 km/h (5 Bft) 97,92 %
08.10.2020 19:40 15,6 C 14,4 C 13,9 C 97 % 1012,8 hPa 0,0 l/m 0 min 0 min 0 W/m 45,1 km/h (6 Bft) 95,74 %
08.10.2020 19:42 15,6 C 14,4 C 13,9 C 97 % 1012,8 hPa 0,0 l/m 0 min 0 min 0 W/m 45,1 km/h (6 Bft) 97,92 %
08.10.2020 19:44 15,6 C 14,4 C 13,9 C 97 % 1012,8 hPa 0,0 l/m 0 min 0 min 0 W/m 25,7 km/h (4 Bft) 97,83 %
08.10.2020 19:46 15,7 C 14,4 C 13,9 C 97 % 1012,8 hPa 0,0 l/m 0 min 0 min 0 W/m 22,5 km/h (4 Bft) 95,65 %
08.10.2020 19:48 15,7 C 14,4 C 13,9 C 97 % 1012,8 hPa 0,0 l/m 0 min 0 min 0 W/m 35,4 km/h (5 Bft) 97,92 %
08.10.2020 19:50 15,7 C 14,4 C 13,9 C 97 % 1012,8 hPa 0,0 l/m 0 min 0 min 0 W/m 41,8 km/h (6 Bft) 97,87 %
08.10.2020 19:52 15,7 C 14,4 C 13,9 C 96 % 1012,8 hPa 0,0 l/m 0 min 0 min 0 W/m 25,7 km/h (4 Bft) 97,87 %
08.10.2020 19:54 15,7 C 14,4 C 13,9 C 96 % 1012,8 hPa 0,0 l/m 0 min 0 min 0 W/m 12,9 km/h (3 Bft) 95,74 %
08.10.2020 19:56 15,7 C 14,4 C 13,9 C 96 % 1012,8 hPa 0,0 l/m 0 min 0 min 0 W/m 35,4 km/h (5 Bft) 97,83 %
08.10.2020 19:58 15,7 C 14,4 C 13,9 C 96 % 1012,8 hPa 0,0 l/m 0 min 0 min 0 W/m 29,0 km/h (5 Bft) 95,24 %
08.10.2020 20:00 15,8 C 14,4 C 13,9 C 96 % 1012,8 hPa 0,0 l/m 0 min 0 min 0 W/m 25,7 km/h (4 Bft) 97,83 %
08.10.2020 20:02 15,8 C 14,4 C 13,9 C 96 % 1012,8 hPa 0,0 l/m 0 min 0 min 0 W/m 25,7 km/h (4 Bft) 94,00 %
08.10.2020 20:04 15,8 C 14,4 C 13,9 C 96 % 1012,8 hPa 0,0 l/m 0 min 0 min 0 W/m 29,0 km/h (5 Bft) 93,62 %
08.10.2020 20:06 15,8 C 14,4 C 13,9 C 96 % 1012,8 hPa 0,0 l/m 0 min 0 min 0 W/m 25,7 km/h (4 Bft) 95,74 %
08.10.2020 20:08 15,8 C 14,4 C 13,9 C 96 % 1012,8 hPa 0,0 l/m 0 min 0 min 0 W/m 25,7 km/h (4 Bft) 93,62 %
08.10.2020 20:10 15,8 C 14,4 C 13,9 C 96 % 1012,7 hPa 0,0 l/m 0 min 0 min 0 W/m 48,3 km/h (6 Bft) 93,62 %
08.10.2020 20:12 15,8 C 15,0 C 13,9 C 96 % 1012,8 hPa 0,0 l/m 0 min 0 min 0 W/m 25,7 km/h (4 Bft) 95,74 %
08.10.2020 20:14 15,8 C 15,0 C 13,9 C 96 % 1012,9 hPa 0,0 l/m 0 min 0 min 0 W/m 22,5 km/h (4 Bft) 97,92 %
08.10.2020 20:16 15,8 C 14,4 C 13,9 C 96 % 1012,9 hPa 0,0 l/m 0 min 0 min 0 W/m 22,5 km/h (4 Bft) 95,83 %
08.10.2020 20:18 15,9 C 15,0 C 13,9 C 96 % 1012,9 hPa 0,0 l/m 0 min 0 min 0 W/m 25,7 km/h (4 Bft) 97,83 %
08.10.2020 20:20 15,9 C 15,0 C 13,9 C 96 % 1012,9 hPa 0,0 l/m 0 min 0 min 0 W/m 22,5 km/h (4 Bft) 93,62 %
08.10.2020 20:22 15,9 C 15,0 C 13,9 C 95 % 1013,0 hPa 0,0 l/m 0 min 0 min 0 W/m 16,1 km/h (3 Bft) 97,87 %
08.10.2020 20:24 15,9 C 15,0 C 13,9 C 95 % 1012,9 hPa 0,0 l/m 0 min 0 min 0 W/m 22,5 km/h (4 Bft) 95,74 %
08.10.2020 20:26 16,0 C 15,0 C 13,9 C 95 % 1013,0 hPa 0,0 l/m 0 min 0 min 0 W/m 29,0 km/h (5 Bft) 93,62 %
08.10.2020 20:27 16,0 C 15,0 C 13,9 C 95 % 1013,0 hPa 0,0 l/m 0 min 0 min 0 W/m 19,3 km/h (3 Bft) 97,87 %
08.10.2020 20:30 16,1 C 15,0 C 13,9 C 95 % 1013,0 hPa 0,0 l/m 0 min 0 min 0 W/m 19,3 km/h (3 Bft) 97,56 %
08.10.2020 20:32 16,1 C 15,0 C 13,9 C 95 % 1013,0 hPa 0,0 l/m 0 min 0 min 0 W/m 19,3 km/h (3 Bft) 97,87 %
08.10.2020 20:34 16,1 C 15,0 C 14,4 C 95 % 1012,9 hPa 0,0 l/m 0 min 0 min 0 W/m 22,5 km/h (4 Bft) 97,83 %
08.10.2020 20:36 16,1 C 15,0 C 14,4 C 95 % 1013,1 hPa 0,0 l/m 0 min 0 min 0 W/m 29,0 km/h (5 Bft) 97,87 %
08.10.2020 20:38 16,1 C 15,0 C 14,4 C 95 % 1013,1 hPa 0,0 l/m 0 min 0 min 0 W/m 41,8 km/h (6 Bft) 97,87 %
08.10.2020 20:40 16,2 C 15,0 C 14,4 C 94 % 1013,1 hPa 0,0 l/m 0 min 0 min 0 W/m 25,7 km/h (4 Bft) 95,74 %
08.10.2020 20:42 16,2 C 14,4 C 13,9 C 94 % 1013,1 hPa 0,0 l/m 0 min 2 min 0 W/m 29,0 km/h (5 Bft) 97,87 %
08.10.2020 20:44 16,2 C 14,4 C 13,9 C 94 % 1013,2 hPa 0,0 l/m 0 min 2 min 0 W/m 25,7 km/h (4 Bft) 97,87 %
08.10.2020 20:46 16,2 C 14,4 C 13,9 C 94 % 1013,1 hPa 0,0 l/m 0 min 2 min 0 W/m 19,3 km/h (3 Bft) 97,83 %
08.10.2020 20:48 16,2 C 14,4 C 13,9 C 94 % 1013,1 hPa 0,0 l/m 0 min 2 min 0 W/m 19,3 km/h (3 Bft) 97,87 %
08.10.2020 20:50 16,2 C 14,4 C 13,9 C 95 % 1013,1 hPa 0,0 l/m 0 min 2 min 0 W/m 16,1 km/h (3 Bft) 97,87 %
08.10.2020 20:52 16,2 C 14,4 C 13,9 C 95 % 1013,2 hPa 0,0 l/m 0 min 2 min 0 W/m 25,7 km/h (4 Bft) 97,87 %
08.10.2020 20:54 16,1 C 14,4 C 13,9 C 95 % 1013,2 hPa 0,0 l/m 0 min 2 min 0 W/m 16,1 km/h (3 Bft) 100,00 %
08.10.2020 20:56 16,1 C 14,4 C 13,9 C 95 % 1013,3 hPa 0,0 l/m 0 min 2 min 0 W/m 19,3 km/h (3 Bft) 100,00 %
08.10.2020 20:58 16,1 C 14,4 C 13,9 C 95 % 1013,3 hPa 0,0 l/m 0 min 2 min 0 W/m 29,0 km/h (5 Bft) 100,00 %
08.10.2020 21:00 16,1 C 13,9 C 13,9 C 95 % 1013,3 hPa 0,2 l/m 0 min 2 min 0 W/m 19,3 km/h (3 Bft) 100,00 %
08.10.2020 21:02 16,1 C 13,9 C 13,9 C 95 % 1013,3 hPa 0,2 l/m 0 min 2 min 0 W/m 12,9 km/h (3 Bft) 100,00 %
08.10.2020 21:04 16,0 C 13,9 C 13,9 C 95 % 1013,3 hPa 0,2 l/m 0 min 2 min 0 W/m 19,3 km/h (3 Bft) 97,87 %
08.10.2020 21:06 16,0 C 13,9 C 13,9 C 95 % 1013,4 hPa 0,2 l/m 0 min 2 min 0 W/m 19,3 km/h (3 Bft) 100,00 %
08.10.2020 21:08 15,9 C 13,9 C 13,9 C 95 % 1013,4 hPa 0,0 l/m 0 min 0 min 0 W/m 16,1 km/h (3 Bft) 100,00 %
08.10.2020 21:10 15,9 C 13,9 C 13,9 C 96 % 1013,4 hPa 0,0 l/m 0 min 0 min 0 W/m 19,3 km/h (3 Bft) 100,00 %
08.10.2020 21:12 15,9 C 13,9 C 13,9 C 96 % 1013,5 hPa 0,0 l/m 0 min 0 min 0 W/m 16,1 km/h (3 Bft) 97,87 %
08.10.2020 21:14 15,9 C 13,9 C 13,9 C 96 % 1013,5 hPa 0,0 l/m 0 min 0 min 0 W/m 16,1 km/h (3 Bft) 100,00 %
08.10.2020 21:16 15,8 C 13,9 C 13,9 C 96 % 1013,6 hPa 0,0 l/m 0 min 0 min 0 W/m 19,3 km/h (3 Bft) 100,00 %
08.10.2020 21:18 15,8 C 13,9 C 13,9 C 96 % 1013,7 hPa 0,0 l/m 0 min 0 min 0 W/m 12,9 km/h (3 Bft) 100,00 %
08.10.2020 21:20 15,8 C 13,9 C 13,9 C 96 % 1013,8 hPa 0,2 l/m 0 min 2 min 0 W/m 12,9 km/h (3 Bft) 97,83 %
08.10.2020 21:22 15,8 C 13,9 C 13,9 C 96 % 1014,0 hPa 0,6 l/m 0 min 2 min 0 W/m 6,4 km/h (2 Bft) 95,74 %
08.10.2020 21:24 15,8 C 13,9 C 13,9 C 96 % 1014,0 hPa 0,0 l/m 0 min 2 min 0 W/m 12,9 km/h (3 Bft) 95,74 %
08.10.2020 21:26 15,7 C 13,9 C 13,9 C 96 % 1014,0 hPa 0,2 l/m 0 min 2 min 0 W/m 19,3 km/h (3 Bft) 97,87 %
08.10.2020 21:28 15,7 C 13,9 C 13,9 C 96 % 1014,1 hPa 0,0 l/m 0 min 0 min 0 W/m 9,7 km/h (2 Bft) 97,87 %
08.10.2020 21:30 15,7 C 13,9 C 13,9 C 96 % 1014,2 hPa 0,0 l/m 0 min 0 min 0 W/m 9,7 km/h (2 Bft) 97,87 %
08.10.2020 21:32 15,6 C 13,9 C 13,3 C 96 % 1014,2 hPa 0,0 l/m 0 min 0 min 0 W/m 12,9 km/h (3 Bft) 97,83 %
08.10.2020 21:34 15,6 C 13,9 C 13,3 C 97 % 1014,3 hPa 0,0 l/m 0 min 0 min 0 W/m 9,7 km/h (2 Bft) 97,87 %
08.10.2020 21:36 15,5 C 13,9 C 13,3 C 97 % 1014,3 hPa 0,0 l/m 0 min 0 min 0 W/m 9,7 km/h (2 Bft) 97,87 %
08.10.2020 21:38 15,4 C 13,3 C 13,3 C 97 % 1014,4 hPa 0,0 l/m 0 min 2 min 0 W/m 9,7 km/h (2 Bft) 97,87 %
08.10.2020 21:40 15,3 C 13,3 C 13,3 C 96 % 1014,4 hPa 0,0 l/m 0 min 2 min 0 W/m 9,7 km/h (2 Bft) 97,87 %
08.10.2020 21:42 15,2 C 12,8 C 12,8 C 96 % 1014,5 hPa 0,0 l/m 0 min 2 min 0 W/m 16,1 km/h (3 Bft) 97,87 %
08.10.2020 21:44 15,1 C 12,8 C 12,8 C 96 % 1014,5 hPa 0,0 l/m 0 min 2 min 0 W/m 19,3 km/h (3 Bft) 95,65 %
08.10.2020 21:46 14,9 C 12,8 C 12,8 C 96 % 1014,6 hPa 0,0 l/m 0 min 2 min 0 W/m 9,7 km/h (2 Bft) 97,87 %
08.10.2020 21:48 14,8 C 12,8 C 12,8 C 96 % 1014,7 hPa 0,0 l/m 0 min 2 min 0 W/m 6,4 km/h (2 Bft) 97,87 %
08.10.2020 21:50 14,7 C 12,8 C 12,8 C 96 % 1014,8 hPa 0,0 l/m 0 min 2 min 0 W/m 22,5 km/h (4 Bft) 97,87 %
08.10.2020 21:52 14,6 C 12,8 C 12,8 C 96 % 1014,8 hPa 0,0 l/m 0 min 2 min 0 W/m 16,1 km/h (3 Bft) 97,87 %
08.10.2020 21:54 14,4 C 12,8 C 12,2 C 96 % 1014,9 hPa 0,0 l/m 0 min 0 min 0 W/m 22,5 km/h (4 Bft) 97,87 %
08.10.2020 21:56 14,3 C 12,2 C 12,2 C 96 % 1014,9 hPa 0,0 l/m 0 min 2 min 0 W/m 3,2 km/h (1 Bft) 97,83 %
08.10.2020 21:58 14,3 C 12,2 C 12,2 C 96 % 1015,0 hPa 0,0 l/m 0 min 2 min 0 W/m 19,3 km/h (3 Bft) 97,87 %
08.10.2020 22:00 14,3 C 12,2 C 12,2 C 96 % 1015,0 hPa 0,0 l/m 0 min 2 min 0 W/m 6,4 km/h (2 Bft) 97,87 %
08.10.2020 22:02 14,2 C 12,2 C 12,2 C 96 % 1015,0 hPa 0,0 l/m 0 min 2 min 0 W/m 22,5 km/h (4 Bft) 98,15 %
08.10.2020 22:04 14,2 C 12,2 C 12,2 C 96 % 1015,0 hPa 0,0 l/m 0 min 2 min 0 W/m 6,4 km/h (2 Bft) 100,00 %
08.10.2020 22:06 14,1 C 12,2 C 12,2 C 96 % 1015,1 hPa 0,0 l/m 0 min 2 min 0 W/m 12,9 km/h (3 Bft) 95,74 %
08.10.2020 22:08 14,0 C 12,2 C 12,2 C 96 % 1015,1 hPa 0,0 l/m 0 min 0 min 0 W/m 6,4 km/h (2 Bft) 97,87 %
08.10.2020 22:10 13,9 C 12,2 C 12,2 C 96 % 1015,2 hPa 0,0 l/m 0 min 0 min 0 W/m 6,4 km/h (2 Bft) 95,74 %
08.10.2020 22:12 13,9 C 12,2 C 12,2 C 96 % 1015,2 hPa 0,0 l/m 0 min 0 min 0 W/m 3,2 km/h (1 Bft) 95,74 %
08.10.2020 22:14 13,9 C 12,2 C 12,2 C 96 % 1015,2 hPa 0,0 l/m 0 min 0 min 0 W/m 6,4 km/h (2 Bft) 95,74 %
08.10.2020 22:16 13,8 C 12,2 C 12,2 C 96 % 1015,2 hPa 0,0 l/m 0 min 0 min 0 W/m 9,7 km/h (2 Bft) 97,83 %
08.10.2020 22:18 13,8 C 12,2 C 12,2 C 96 % 1015,2 hPa 0,0 l/m 0 min 0 min 0 W/m 6,4 km/h (2 Bft) 95,74 %
08.10.2020 22:20 13,8 C 12,2 C 12,2 C 96 % 1015,3 hPa 0,0 l/m 0 min 0 min 0 W/m 6,4 km/h (2 Bft) 97,87 %
08.10.2020 22:22 13,8 C 12,2 C 12,2 C 96 % 1015,3 hPa 0,0 l/m 0 min 0 min 0 W/m 3,2 km/h (1 Bft) 95,74 %
08.10.2020 22:24 13,7 C 12,2 C 12,2 C 97 % 1015,4 hPa 0,0 l/m 0 min 0 min 0 W/m 3,2 km/h (1 Bft) 97,87 %
08.10.2020 22:26 13,7 C 12,2 C 12,2 C 97 % 1015,5 hPa 0,0 l/m 0 min 0 min 0 W/m 6,4 km/h (2 Bft) 95,65 %
08.10.2020 22:28 13,7 C 12,2 C 12,2 C 97 % 1015,5 hPa 0,0 l/m 0 min 0 min 0 W/m 6,4 km/h (2 Bft) 97,87 %
08.10.2020 22:30 13,7 C 12,2 C 12,2 C 97 % 1015,6 hPa 0,0 l/m 0 min 0 min 0 W/m 3,2 km/h (1 Bft) 97,87 %
08.10.2020 22:32 13,7 C 12,2 C 12,2 C 97 % 1015,6 hPa 0,0 l/m 0 min 0 min 0 W/m 0,0 km/h (0 Bft) 97,87 %
08.10.2020 22:34 13,6 C 12,2 C 12,2 C 97 % 1015,6 hPa 0,0 l/m 0 min 0 min 0 W/m 6,4 km/h (2 Bft) 97,87 %
08.10.2020 22:36 13,6 C 12,2 C 12,2 C 97 % 1015,7 hPa 0,0 l/m 0 min 0 min 0 W/m 6,4 km/h (2 Bft) 97,87 %
08.10.2020 22:38 13,6 C 12,2 C 12,2 C 97 % 1015,7 hPa 0,0 l/m 0 min 0 min 0 W/m 6,4 km/h (2 Bft) 97,83 %
08.10.2020 22:40 13,6 C 12,2 C 12,2 C 97 % 1015,8 hPa 0,0 l/m 0 min 0 min 0 W/m 3,2 km/h (1 Bft) 91,49 %
08.10.2020 22:42 13,6 C 12,2 C 12,2 C 97 % 1015,8 hPa 0,0 l/m 0 min 0 min 0 W/m 0,0 km/h (0 Bft) 97,87 %
08.10.2020 22:44 13,6 C 12,2 C 12,2 C 97 % 1015,8 hPa 0,0 l/m 0 min 0 min 0 W/m 0,0 km/h (0 Bft) 97,87 %
08.10.2020 22:46 13,6 C 12,2 C 12,2 C 97 % 1015,9 hPa 0,0 l/m 0 min 0 min 0 W/m 3,2 km/h (1 Bft) 95,74 %
08.10.2020 22:48 13,6 C 12,2 C 12,2 C 97 % 1015,9 hPa 0,0 l/m 0 min 0 min 0 W/m 0,0 km/h (0 Bft) 95,74 %
08.10.2020 22:50 13,6 C 12,2 C 12,2 C 97 % 1016,0 hPa 0,0 l/m 0 min 0 min 0 W/m 9,7 km/h (2 Bft) 97,83 %
08.10.2020 22:52 13,6 C 12,2 C 12,2 C 97 % 1016,0 hPa 0,0 l/m 0 min 0 min 0 W/m 6,4 km/h (2 Bft) 97,87 %
08.10.2020 22:54 13,6 C 12,2 C 12,2 C 97 % 1016,0 hPa 0,0 l/m 0 min 0 min 0 W/m 0,0 km/h (0 Bft) 97,87 %
08.10.2020 22:56 13,6 C 12,2 C 12,2 C 97 % 1016,0 hPa 0,0 l/m 0 min 0 min 0 W/m 0,0 km/h (0 Bft) 95,74 %
08.10.2020 22:58 13,6 C 12,2 C 12,2 C 97 % 1016,1 hPa 0,0 l/m 0 min 0 min 0 W/m 3,2 km/h (1 Bft) 93,62 %
08.10.2020 23:00 13,6 C 12,2 C 12,2 C 97 % 1016,1 hPa 0,0 l/m 0 min 0 min 0 W/m 3,2 km/h (1 Bft) 97,87 %
08.10.2020 23:02 13,6 C 12,2 C 12,2 C 97 % 1016,1 hPa 0,0 l/m 0 min 0 min 0 W/m 6,4 km/h (2 Bft) 97,87 %
08.10.2020 23:04 13,6 C 12,2 C 12,2 C 97 % 1016,2 hPa 0,0 l/m 0 min 0 min 0 W/m 6,4 km/h (2 Bft) 97,87 %
08.10.2020 23:06 13,6 C 12,2 C 12,2 C 97 % 1016,2 hPa 0,0 l/m 0 min 0 min 0 W/m 12,9 km/h (3 Bft) 97,87 %
08.10.2020 23:08 13,6 C 12,2 C 12,2 C 97 % 1016,2 hPa 0,0 l/m 0 min 0 min 0 W/m 0,0 km/h (0 Bft) 97,87 %
08.10.2020 23:10 13,6 C 12,2 C 12,2 C 98 % 1016,2 hPa 0,0 l/m 0 min 0 min 0 W/m 0,0 km/h (0 Bft) 96,00 %
08.10.2020 23:12 13,6 C 12,2 C 12,2 C 98 % 1016,1 hPa 0,0 l/m 0 min 0 min 0 W/m 0,0 km/h (0 Bft) 97,83 %
08.10.2020 23:14 13,6 C 12,2 C 12,2 C 98 % 1016,1 hPa 0,0 l/m 0 min 0 min 0 W/m 0,0 km/h (0 Bft) 97,87 %
08.10.2020 23:16 13,6 C 12,2 C 12,2 C 98 % 1016,2 hPa 0,0 l/m 0 min 0 min 0 W/m 0,0 km/h (0 Bft) 95,74 %
08.10.2020 23:18 13,6 C 12,2 C 12,2 C 98 % 1016,3 hPa 0,0 l/m 0 min 0 min 0 W/m 0,0 km/h (0 Bft) 97,87 %
08.10.2020 23:20 13,6 C 12,2 C 12,2 C 98 % 1016,4 hPa 0,0 l/m 0 min 0 min 0 W/m 0,0 km/h (0 Bft) 97,87 %
08.10.2020 23:22 13,6 C 12,2 C 12,2 C 98 % 1016,4 hPa 0,0 l/m 0 min 0 min 0 W/m 0,0 km/h (0 Bft) 95,74 %
08.10.2020 23:24 13,6 C 12,2 C 12,2 C 98 % 1016,4 hPa 0,0 l/m 0 min 0 min 0 W/m 3,2 km/h (1 Bft) 97,83 %
08.10.2020 23:26 13,6 C 12,2 C 12,2 C 98 % 1016,5 hPa 0,0 l/m 0 min 0 min 0 W/m 3,2 km/h (1 Bft) 95,74 %
08.10.2020 23:28 13,6 C 12,2 C 12,2 C 98 % 1016,5 hPa 0,0 l/m 0 min 0 min 0 W/m 3,2 km/h (1 Bft) 97,87 %
08.10.2020 23:30 13,5 C 12,2 C 12,2 C 98 % 1016,5 hPa 0,0 l/m 0 min 0 min 0 W/m 0,0 km/h (0 Bft) 97,87 %
08.10.2020 23:32 13,5 C 12,2 C 12,2 C 98 % 1016,6 hPa 0,0 l/m 0 min 0 min 0 W/m 0,0 km/h (0 Bft) 97,92 %
08.10.2020 23:34 13,5 C 12,2 C 12,2 C 98 % 1016,6 hPa 0,0 l/m 0 min 0 min 0 W/m 6,4 km/h (2 Bft) 97,87 %
08.10.2020 23:36 13,5 C 12,2 C 12,2 C 98 % 1016,6 hPa 0,0 l/m 0 min 0 min 0 W/m 3,2 km/h (1 Bft) 97,83 %
08.10.2020 23:38 13,5 C 12,2 C 12,2 C 98 % 1016,7 hPa 0,0 l/m 0 min 0 min 0 W/m 3,2 km/h (1 Bft) 97,87 %
08.10.2020 23:40 13,4 C 12,2 C 12,2 C 98 % 1016,7 hPa 0,0 l/m 0 min 0 min 0 W/m 0,0 km/h (0 Bft) 95,74 %
08.10.2020 23:42 13,4 C 12,2 C 12,2 C 98 % 1016,8 hPa 0,0 l/m 0 min 0 min 0 W/m 6,4 km/h (2 Bft) 97,87 %
08.10.2020 23:44 13,4 C 12,2 C 12,2 C 98 % 1016,7 hPa 0,0 l/m 0 min 0 min 0 W/m 12,9 km/h (3 Bft) 97,87 %
08.10.2020 23:46 13,4 C 12,2 C 12,2 C 98 % 1016,8 hPa 0,0 l/m 0 min 0 min 0 W/m 12,9 km/h (3 Bft) 100,00 %
08.10.2020 23:48 13,4 C 12,2 C 12,2 C 98 % 1016,7 hPa 0,0 l/m 0 min 0 min 0 W/m 6,4 km/h (2 Bft) 100,00 %
08.10.2020 23:50 13,4 C 12,2 C 12,2 C 98 % 1016,7 hPa 0,0 l/m 0 min 0 min 0 W/m 3,2 km/h (1 Bft) 100,00 %
08.10.2020 23:52 13,4 C 12,2 C 12,2 C 98 % 1016,8 hPa 0,0 l/m 0 min 0 min 0 W/m 0,0 km/h (0 Bft) 100,00 %
08.10.2020 23:54 13,4 C 12,2 C 12,2 C 98 % 1016,8 hPa 0,0 l/m 0 min 0 min 0 W/m 0,0 km/h (0 Bft) 100,00 %
08.10.2020 23:56 13,4 C 12,2 C 12,2 C 98 % 1016,7 hPa 0,0 l/m 0 min 0 min 0 W/m 3,2 km/h (1 Bft) 100,00 %
08.10.2020 23:58 13,4 C 12,2 C 12,2 C 98 % 1016,8 hPa 0,0 l/m 0 min 0 min 0 W/m 3,2 km/h (1 Bft) 100,00 %
_ Min-Zeit 00:30 00:00 00:00 14:28 16:40 - - - - 00:08 05:30
Minimum _ 9,8 C 8,9 C 8,9 C 83 % 1012,0 hPa - - - - 0,0 km/h (0 Bft) 48,84 %
_ Max-Zeit 16:24 14:12 14:30 09:48 01:44 21:22 13:10 06:08 14:12 16:16 00:00
Maximum _ 17,6 C 19,4 C 16,7 C 99 % 1018,1 hPa 0,6 l/m 2 min 4 min 607 W/m 61,2 km/h
O-SO (7 Bft)
100,00 %
Durchschnitt _ 13,3 C 12,4 C 12,0 C 93 % 1014,7 hPa #3,2 l/m #26 min. #3:28 h 84 W/m 19,0 km/h (3 Bft) 97,33 %
© 2020 W. Hausmann